Observation data for Happy on 11/19/2019      Previous  Date       Current Mesonet Observations  Soil Data  Daily Summary Page  Observations in Plain Language
KHA2 190600Z 19003KT 08/M02 A3001 RMK A01 T00831023  RH  047%=      5-min Rain = 0
KHA2 190601Z 19003KT 08/M02 A3001 RMK A01 T00841023  RH  047%=      5-min Rain = 0
KHA2 190602Z 19003KT 08/M02 A3001 RMK A01 T00841024  RH  046%=      5-min Rain = 0
KHA2 190603Z 19003KT 09/M02 A3001 RMK A01 T00851024  RH  046%=      5-min Rain = 0
KHA2 190604Z 20003KT 09/M02 A3001 RMK A01 T00851023  RH  047%=      5-min Rain = 0
KHA2 190605Z 20002KT 08/M02 A3001 RMK A01 T00801024  RH  048%=      5-min Rain = 0
KHA2 190606Z 20002KT 08/M02 A3001 RMK A01 T00751023  RH  050%=      5-min Rain = 0
KHA2 190607Z 20002KT 07/M02 A3001 RMK A01 T00721020  RH  052%=      5-min Rain = 0
KHA2 190608Z 19002KT 07/M02 A3001 RMK A01 T00711019  RH  053%=      5-min Rain = 0
KHA2 190609Z 19002KT 07/M02 A3001 RMK A01 T00701017  RH  054%=      5-min Rain = 0
KHA2 190610Z 19001KT 07/M01 A3001 RMK A01 T00701014  RH  055%=      5-min Rain = 0
KHA2 190611Z 19001KT 07/M01 A3001 RMK A01 T00701008  RH  058%=      5-min Rain = 0
KHA2 190612Z 19000KT 06/M02 A3001 RMK A01 T00641015  RH  057%=      5-min Rain = 0
KHA2 190613Z 19000KT 06/M02 A3001 RMK A01 T00571021  RH  057%=      5-min Rain = 0
KHA2 190614Z 20000KT 06/M03 A3001 RMK A01 T00551025  RH  057%=      5-min Rain = 0
KHA2 190615Z 21001KT 06/M03 A3001 RMK A01 T00551026  RH  056%=      5-min Rain = 0
KHA2 190616Z 22001KT 06/M03 A3001 RMK A01 T00561026  RH  056%=      5-min Rain = 0
KHA2 190617Z 22001KT 06/M03 A3001 RMK A01 T00561025  RH  056%=      5-min Rain = 0
KHA2 190618Z 22001KT 06/M03 A3001 RMK A01 T00581025  RH  055%=      5-min Rain = 0
KHA2 190619Z 20002KT 06/M03 A3001 RMK A01 T00581026  RH  055%=      5-min Rain = 0
KHA2 190620Z 19002KT 06/M03 A3001 RMK A01 T00581026  RH  055%=      5-min Rain = 0
KHA2 190621Z 20001KT 06/M03 A3001 RMK A01 T00581027  RH  055%=      5-min Rain = 0
KHA2 190622Z 19002KT 06/M03 A3001 RMK A01 T00581026  RH  055%=      5-min Rain = 0
KHA2 190623Z 18002KT 06/M02 A3001 RMK A01 T00611024  RH  054%=      5-min Rain = 0
KHA2 190624Z 18001KT 07/M02 A3001 RMK A01 T00651024  RH  053%=      5-min Rain = 0
KHA2 190625Z 18001KT 07/M03 A3001 RMK A01 T00671025  RH  052%=      5-min Rain = 0
KHA2 190626Z 18001KT 07/M03 A3001 RMK A01 T00691025  RH  051%=      5-min Rain = 0
KHA2 190627Z 19001KT 07/M03 A3001 RMK A01 T00711025  RH  050%=      5-min Rain = 0
KHA2 190628Z 20001KT 07/M03 A3001 RMK A01 T00701027  RH  050%=      5-min Rain = 0
KHA2 190629Z 19001KT 07/M03 A3001 RMK A01 T00691027  RH  050%=      5-min Rain = 0
KHA2 190630Z 20001KT 07/M03 A3001 RMK A01 T00691028  RH  050%=      5-min Rain = 0
KHA2 190631Z 20001KT 07/M03 A3001 RMK A01 T00681027  RH  051%=      5-min Rain = 0
KHA2 190632Z 20001KT 06/M03 A3001 RMK A01 T00631028  RH  052%=      5-min Rain = 0
KHA2 190633Z 20001KT 06/M03 A3001 RMK A01 T00581029  RH  054%=      5-min Rain = 0
KHA2 190634Z 20001KT 06/M03 A3001 RMK A01 T00561028  RH  055%=      5-min Rain = 0
KHA2 190635Z 20002KT 06/M03 A3001 RMK A01 T00591027  RH  054%=      5-min Rain = 0
KHA2 190636Z 19002KT 06/M03 A3001 RMK A01 T00611027  RH  053%=      5-min Rain = 0
KHA2 190637Z 18002KT 06/M03 A3001 RMK A01 T00631027  RH  053%=      5-min Rain = 0
KHA2 190638Z 18002KT 06/M03 A3001 RMK A01 T00641027  RH  052%=      5-min Rain = 0
KHA2 190639Z 18002KT 07/M03 A3001 RMK A01 T00671026  RH  051%=      5-min Rain = 0
KHA2 190640Z 18002KT 07/M03 A3001 RMK A01 T00691027  RH  050%=      5-min Rain = 0
KHA2 190641Z 19002KT 07/M03 A3001 RMK A01 T00701027  RH  050%=      5-min Rain = 0
KHA2 190642Z 19002KT 07/M03 A3001 RMK A01 T00711027  RH  050%=      5-min Rain = 0
KHA2 190643Z 19003KT 07/M03 A3001 RMK A01 T00711027  RH  050%=      5-min Rain = 0
KHA2 190644Z 19003KT 08/M03 A3001 RMK A01 T00751027  RH  048%=      5-min Rain = 0
KHA2 190645Z 19004KT 08/M03 A3001 RMK A01 T00761027  RH  048%=      5-min Rain = 0
KHA2 190646Z 19004KT 07/M03 A3001 RMK A01 T00731029  RH  048%=      5-min Rain = 0
KHA2 190647Z 20003KT 07/M03 A3001 RMK A01 T00671030  RH  050%=      5-min Rain = 0
KHA2 190648Z 20003KT 06/M03 A3001 RMK A01 T00641030  RH  051%=      5-min Rain = 0
KHA2 190649Z 20004KT 07/M03 A3001 RMK A01 T00651029  RH  051%=      5-min Rain = 0
KHA2 190650Z 20004KT 07/M03 A3001 RMK A01 T00681028  RH  051%=      5-min Rain = 0
KHA2 190651Z 20004KT 07/M03 A3001 RMK A01 T00701028  RH  050%=      5-min Rain = 0
KHA2 190652Z 20004KT 07/M03 A3001 RMK A01 T00731028  RH  049%=      5-min Rain = 0
KHA2 190653Z 20004KT 08/M03 A3001 RMK A01 T00791028  RH  047%=      5-min Rain = 0
KHA2 190654Z 20004KT 08/M03 A3001 RMK A01 T00811028  RH  046%=      5-min Rain = 0
KHA2 190655Z 20004KT 08/M03 A3001 RMK A01 T00841028  RH  045%=      5-min Rain = 0
KHA2 190656Z 20004KT 08/M03 A3001 RMK A01 T00841028  RH  045%=      5-min Rain = 0
KHA2 190657Z 20004KT 08/M03 A3001 RMK A01 T00841028  RH  045%=      5-min Rain = 0
KHA2 190658Z 21004KT 09/M03 A3001 RMK A01 T00861028  RH  045%=      5-min Rain = 0
KHA2 190659Z 20004KT 09/M03 A3001 RMK A01 T00861028  RH  045%=      5-min Rain = 0
KHA2 190700Z 20005KT 09/M03 A3001 RMK A01 T00871028  RH  044%=      5-min Rain = 0
KHA2 190701Z 20005KT 09/M03 A3001 RMK A01 T00861028  RH  045%=      5-min Rain = 0
KHA2 190702Z 20005KT 08/M03 A3001 RMK A01 T00831029  RH  045%=      5-min Rain = 0
KHA2 190703Z 20004KT 08/M03 A3001 RMK A01 T00821028  RH  046%=      5-min Rain = 0
KHA2 190704Z 20004KT 08/M03 A30 RMK A01 T00841028  RH  045%=      5-min Rain = 0
KHA2 190705Z 20004KT 09/M03 A30 RMK A01 T00851028  RH  045%=      5-min Rain = 0
KHA2 190706Z 19004KT 09/M03 A30 RMK A01 T00871028  RH  044%=      5-min Rain = 0
KHA2 190707Z 19004KT 09/M03 A30 RMK A01 T00861029  RH  044%=      5-min Rain = 0
KHA2 190708Z 19004KT 09/M03 A30 RMK A01 T00851029  RH  045%=      5-min Rain = 0
KHA2 190709Z 19004KT 08/M03 A30 RMK A01 T00841029  RH  045%=      5-min Rain = 0
KHA2 190710Z 19003KT 09/M03 A30 RMK A01 T00861029  RH  044%=      5-min Rain = 0
KHA2 190711Z 19003KT 09/M03 A30 RMK A01 T00861029  RH  044%=      5-min Rain = 0
KHA2 190712Z 19003KT 09/M03 A30 RMK A01 T00861029  RH  044%=      5-min Rain = 0
KHA2 190713Z 20003KT 09/M03 A30 RMK A01 T00861029  RH  044%=      5-min Rain = 0
KHA2 190714Z 20003KT 09/M03 A30 RMK A01 T00851029  RH  045%=      5-min Rain = 0
KHA2 190715Z 20003KT 08/M03 A30 RMK A01 T00841029  RH  045%=      5-min Rain = 0
KHA2 190716Z 20003KT 08/M03 A30 RMK A01 T00831029  RH  045%=      5-min Rain = 0
KHA2 190717Z 20003KT 08/M03 A30 RMK A01 T00831029  RH  045%=      5-min Rain = 0
KHA2 190718Z 21003KT 08/M03 A30 RMK A01 T00831029  RH  045%=      5-min Rain = 0
KHA2 190719Z 21003KT 08/M03 A30 RMK A01 T00831028  RH  045%=      5-min Rain = 0
KHA2 190720Z 21003KT 08/M03 A30 RMK A01 T00831029  RH  045%=      5-min Rain = 0
KHA2 190721Z 21003KT 08/M03 A30 RMK A01 T00821029  RH  046%=      5-min Rain = 0
KHA2 190722Z 21003KT 08/M03 A30 RMK A01 T00801029  RH  046%=      5-min Rain = 0
KHA2 190723Z 22003KT 08/M03 A30 RMK A01 T00801028  RH  047%=      5-min Rain = 0
KHA2 190724Z 22003KT 08/M03 A30 RMK A01 T00801029  RH  046%=      5-min Rain = 0
KHA2 190725Z 23003KT 08/M03 A30 RMK A01 T00811029  RH  046%=      5-min Rain = 0
KHA2 190726Z 23003KT 08/M03 A30 RMK A01 T00821028  RH  046%=      5-min Rain = 0
KHA2 190727Z 23003KT 08/M03 A30 RMK A01 T00821028  RH  046%=      5-min Rain = 0
KHA2 190728Z 24003KT 08/M03 A30 RMK A01 T00821029  RH  046%=      5-min Rain = 0
KHA2 190729Z 24003KT 08/M03 A30 RMK A01 T00821029  RH  045%=      5-min Rain = 0
KHA2 190730Z 24003KT 08/M03 A30 RMK A01 T00791031  RH  046%=      5-min Rain = 0
KHA2 190731Z 24003KT 08/M03 A30 RMK A01 T00761032  RH  046%=      5-min Rain = 0
KHA2 190732Z 24003KT 07/M03 A30 RMK A01 T00741032  RH  047%=      5-min Rain = 0
KHA2 190733Z 24003KT 07/M03 A30 RMK A01 T00721030  RH  048%=      5-min Rain = 0
KHA2 190734Z 25002KT 07/M03 A30 RMK A01 T00691030  RH  049%=      5-min Rain = 0
KHA2 190735Z 24002KT 07/M03 A30 RMK A01 T00671029  RH  050%=      5-min Rain = 0
KHA2 190736Z 23002KT 07/M03 A30 RMK A01 T00671029  RH  050%=      5-min Rain = 0
KHA2 190737Z 23002KT 07/M03 A30 RMK A01 T00671030  RH  050%=      5-min Rain = 0
KHA2 190738Z 23003KT 07/M03 A30 RMK A01 T00681031  RH  049%=      5-min Rain = 0
KHA2 190739Z 23003KT 07/M03 A30 RMK A01 T00681031  RH  049%=      5-min Rain = 0
KHA2 190740Z 23003KT 07/M03 A30 RMK A01 T00681032  RH  049%=      5-min Rain = 0
KHA2 190741Z 23003KT 07/M03 A30 RMK A01 T00671032  RH  049%=      5-min Rain = 0
KHA2 190742Z 23004KT 07/M03 A30 RMK A01 T00681031  RH  049%=      5-min Rain = 0
KHA2 190743Z 23004KT 07/M03 A30 RMK A01 T00701031  RH  049%=      5-min Rain = 0
KHA2 190744Z 23004KT 07/M03 A30 RMK A01 T00711031  RH  049%=      5-min Rain = 0
KHA2 190745Z 23005KT 07/M03 A30 RMK A01 T00711030  RH  049%=      5-min Rain = 0
KHA2 190746Z 23005KT 07/M03 A30 RMK A01 T00711029  RH  049%=      5-min Rain = 0
KHA2 190747Z 23006KT 07/M03 A3001 RMK A01 T00661031  RH  050%=      5-min Rain = 0
KHA2 190748Z 24006KT 06/M03 A3001 RMK A01 T00551034  RH  053%=      5-min Rain = 0
KHA2 190749Z 23006KT 05/M03 A30 RMK A01 T00491033  RH  056%=      5-min Rain = 0
KHA2 190750Z 23006KT 05/M03 A30 RMK A01 T00471031  RH  057%=      5-min Rain = 0
KHA2 190751Z 23006KT 05/M03 A30 RMK A01 T00461029  RH  058%=      5-min Rain = 0
KHA2 190752Z 23006KT 05/M03 A30 RMK A01 T00451028  RH  059%=      5-min Rain = 0
KHA2 190753Z 23006KT 05/M03 A30 RMK A01 T00451027  RH  059%=      5-min Rain = 0
KHA2 190754Z 24006KT 05/M03 A30 RMK A01 T00511025  RH  058%=      5-min Rain = 0
KHA2 190755Z 24007KT 05/M03 A3001 RMK A01 T00531025  RH  057%=      5-min Rain = 0
KHA2 190756Z 23007KT 05/M03 A3001 RMK A01 T00531026  RH  057%=      5-min Rain = 0
KHA2 190757Z 23007KT 05/M03 A3001 RMK A01 T00541026  RH  056%=      5-min Rain = 0
KHA2 190758Z 23007KT 06/M03 A3001 RMK A01 T00561026  RH  056%=      5-min Rain = 0
KHA2 190759Z 23007KT 06/M03 A3001 RMK A01 T00571026  RH  055%=      5-min Rain = 0
KHA2 190800Z 23007KT 06/M03 A3001 RMK A01 T00581026  RH  055%=      5-min Rain = 0
KHA2 190801Z 23007KT 06/M03 A3001 RMK A01 T00591026  RH  054%=      5-min Rain = 0
KHA2 190802Z 23007KT 06/M03 A3001 RMK A01 T00591027  RH  054%=      5-min Rain = 0
KHA2 190803Z 24007KT 06/M03 A3001 RMK A01 T00621026  RH  053%=      5-min Rain = 0
KHA2 190804Z 24007KT 07/M03 A3001 RMK A01 T00651026  RH  052%=      5-min Rain = 0
KHA2 190805Z 24008KT 07/M03 A3001 RMK A01 T00661026  RH  052%=      5-min Rain = 0
KHA2 190806Z 24008KT 07/M03 A3001 RMK A01 T00661026  RH  052%=      5-min Rain = 0
KHA2 190807Z 24007KT 07/M03 A3001 RMK A01 T00691026  RH  051%=      5-min Rain = 0
KHA2 190808Z 24006KT 07/M03 A3001 RMK A01 T00711026  RH  050%=      5-min Rain = 0
KHA2 190809Z 25006KT 07/M03 A3001 RMK A01 T00731027  RH  049%=      5-min Rain = 0
KHA2 190810Z 25006KT 08/M03 A3001 RMK A01 T00761027  RH  048%=      5-min Rain = 0
KHA2 190811Z 25006KT 08/M03 A3001 RMK A01 T00781027  RH  047%=      5-min Rain = 0
KHA2 190812Z 25007KT 08/M03 A3001 RMK A01 T00771028  RH  047%=      5-min Rain = 0
KHA2 190813Z 25007KT 07/M03 A3001 RMK A01 T00741028  RH  048%=      5-min Rain = 0
KHA2 190814Z 25007KT 07/M03 A3001 RMK A01 T00721028  RH  049%=      5-min Rain = 0
KHA2 190815Z 25007KT 07/M03 A3001 RMK A01 T00721027  RH  049%=      5-min Rain = 0
KHA2 190816Z 25007KT 07/M03 A3001 RMK A01 T00721027  RH  049%=      5-min Rain = 0
KHA2 190817Z 25007KT 07/M03 A3001 RMK A01 T00721027  RH  049%=      5-min Rain = 0
KHA2 190818Z 25007KT 07/M03 A3001 RMK A01 T00721027  RH  050%=      5-min Rain = 0
KHA2 190819Z 25007KT 07/M03 A3001 RMK A01 T00731026  RH  049%=      5-min Rain = 0
KHA2 190820Z 25007KT 08/M03 A3001 RMK A01 T00751026  RH  049%=      5-min Rain = 0
KHA2 190821Z 25007KT 08/M03 A3001 RMK A01 T00751026  RH  049%=      5-min Rain = 0
KHA2 190822Z 26007KT 08/M03 A3001 RMK A01 T00751027  RH  048%=      5-min Rain = 0
KHA2 190823Z 26007KT 08/M03 A3001 RMK A01 T00781027  RH  047%=      5-min Rain = 0
KHA2 190824Z 26007KT 08/M03 A3001 RMK A01 T00801027  RH  047%=      5-min Rain = 0
KHA2 190825Z 26007KT 08/M03 A3001 RMK A01 T00791028  RH  047%=      5-min Rain = 0
KHA2 190826Z 26007KT 08/M03 A3001 RMK A01 T00771028  RH  047%=      5-min Rain = 0
KHA2 190827Z 26007KT 08/M03 A3001 RMK A01 T00761027  RH  048%=      5-min Rain = 0
KHA2 190828Z 26007KT 08/M03 A3001 RMK A01 T00771026  RH  048%=      5-min Rain = 0
KHA2 190829Z 26007KT 08/M03 A3001 RMK A01 T00771026  RH  048%=      5-min Rain = 0
KHA2 190830Z 26007KT 08/M03 A3001 RMK A01 T00771026  RH  048%=      5-min Rain = 0
KHA2 190831Z 26007KT 08/M03 A3001 RMK A01 T00771026  RH  048%=      5-min Rain = 0
KHA2 190832Z 26007KT 08/M03 A3001 RMK A01 T00771026  RH  048%=      5-min Rain = 0
KHA2 190833Z 26007KT 08/M03 A3001 RMK A01 T00771025  RH  048%=      5-min Rain = 0
KHA2 190834Z 26007KT 08/M03 A3001 RMK A01 T00781025  RH  048%=      5-min Rain = 0
KHA2 190835Z 26007KT 08/M02 A3001 RMK A01 T00791024  RH  048%=      5-min Rain = 0
KHA2 190836Z 26007KT 08/M02 A3001 RMK A01 T00801024  RH  048%=      5-min Rain = 0
KHA2 190837Z 26007KT 08/M02 A3001 RMK A01 T00811023  RH  048%=      5-min Rain = 0
KHA2 190838Z 26007KT 08/M02 A3001 RMK A01 T00811022  RH  048%=      5-min Rain = 0
KHA2 190839Z 26007KT 08/M02 A3001 RMK A01 T00821022  RH  048%=      5-min Rain = 0
KHA2 190840Z 27007KT 08/M02 A3001 RMK A01 T00821021  RH  048%=      5-min Rain = 0
KHA2 190841Z 27007KT 08/M02 A3001 RMK A01 T00831021  RH  048%=      5-min Rain = 0
KHA2 190842Z 27007KT 08/M02 A3001 RMK A01 T00831021  RH  048%=      5-min Rain = 0
KHA2 190843Z 26007KT 08/M02 A3001 RMK A01 T00831020  RH  048%=      5-min Rain = 0
KHA2 190844Z 26007KT 08/M02 A3001 RMK A01 T00831020  RH  048%=      5-min Rain = 0
KHA2 190845Z 26007KT 08/M02 A3001 RMK A01 T00831019  RH  049%=      5-min Rain = 0
KHA2 190846Z 26007KT 08/M02 A3001 RMK A01 T00831019  RH  049%=      5-min Rain = 0
KHA2 190847Z 26007KT 08/M02 A3001 RMK A01 T00831019  RH  049%=      5-min Rain = 0
KHA2 190848Z 26006KT 08/M02 A3001 RMK A01 T00831019  RH  049%=      5-min Rain = 0
KHA2 190849Z 26006KT 08/M02 A3001 RMK A01 T00831020  RH  048%=      5-min Rain = 0
KHA2 190850Z 26006KT 08/M02 A3001 RMK A01 T00841019  RH  048%=      5-min Rain = 0
KHA2 190851Z 26006KT 09/M02 A3001 RMK A01 T00851019  RH  048%=      5-min Rain = 0
KHA2 190852Z 26006KT 08/M02 A3001 RMK A01 T00841020  RH  048%=      5-min Rain = 0
KHA2 190853Z 26006KT 08/M02 A3001 RMK A01 T00821020  RH  048%=      5-min Rain = 0
KHA2 190854Z 26005KT 08/M02 A3001 RMK A01 T00801021  RH  049%=      5-min Rain = 0
KHA2 190855Z 27005KT 08/M02 A3001 RMK A01 T00781021  RH  050%=      5-min Rain = 0
KHA2 190856Z 27004KT 08/M02 A3001 RMK A01 T00761020  RH  050%=      5-min Rain = 0
KHA2 190857Z 26004KT 07/M02 A3001 RMK A01 T00741019  RH  051%=      5-min Rain = 0
KHA2 190858Z 26005KT 07/M02 A3001 RMK A01 T00731018  RH  052%=      5-min Rain = 0
KHA2 190859Z 26005KT 07/M02 A3001 RMK A01 T00721018  RH  053%=      5-min Rain = 0
KHA2 190900Z 26005KT 07/M02 A3001 RMK A01 T00721018  RH  053%=      5-min Rain = 0
KHA2 190901Z 26005KT 07/M02 A3001 RMK A01 T00721018  RH  053%=      5-min Rain = 0
KHA2 190902Z 26005KT 07/M02 A3001 RMK A01 T00731019  RH  052%=      5-min Rain = 0
KHA2 190903Z 26005KT 07/M02 A3001 RMK A01 T00741018  RH  052%=      5-min Rain = 0
KHA2 190904Z 26005KT 08/M02 A3001 RMK A01 T00751019  RH  051%=      5-min Rain = 0
KHA2 190905Z 26005KT 08/M02 A3001 RMK A01 T00751019  RH  051%=      5-min Rain = 0
KHA2 190906Z 26005KT 08/M02 A3001 RMK A01 T00751019  RH  051%=      5-min Rain = 0
KHA2 190907Z 25005KT 07/M02 A3001 RMK A01 T00741021  RH  051%=      5-min Rain = 0
KHA2 190908Z 26004KT 07/M03 A3001 RMK A01 T00691026  RH  051%=      5-min Rain = 0
KHA2 190909Z 26004KT 07/M03 A3001 RMK A01 T00661026  RH  052%=      5-min Rain = 0
KHA2 190910Z 26004KT 06/M03 A3001 RMK A01 T00641026  RH  053%=      5-min Rain = 0
KHA2 190911Z 26004KT 06/M03 A3001 RMK A01 T00631026  RH  053%=      5-min Rain = 0
KHA2 190912Z 26004KT 06/M03 A3001 RMK A01 T00611026  RH  054%=      5-min Rain = 0
KHA2 190913Z 26004KT 06/M03 A3001 RMK A01 T00601026  RH  054%=      5-min Rain = 0
KHA2 190914Z 26004KT 06/M02 A30 RMK A01 T00591024  RH  055%=      5-min Rain = 0
KHA2 190915Z 26003KT 06/M02 A30 RMK A01 T00591021  RH  056%=      5-min Rain = 0
KHA2 190916Z 26003KT 06/M00 A30 RMK A01 T00601004  RH  064%=      5-min Rain = 0
KHA2 190917Z 25004KT 06/01 A30 RMK A01 T00590008  RH  070%=      5-min Rain = 0
KHA2 190918Z 25004KT 06/01 A30 RMK A01 T00570009  RH  071%=      5-min Rain = 0
KHA2 190919Z 25004KT 06/01 A30 RMK A01 T00560006  RH  071%=      5-min Rain = 0
KHA2 190920Z 25004KT 06/00 A30 RMK A01 T00550003  RH  069%=      5-min Rain = 0
KHA2 190921Z 25004KT 06/M00 A30 RMK A01 T00551003  RH  066%=      5-min Rain = 0
KHA2 190922Z 25005KT 06/M00 A30 RMK A01 T00551004  RH  066%=      5-min Rain = 0
KHA2 190923Z 25005KT 06/M00 A30 RMK A01 T00551001  RH  067%=      5-min Rain = 0
KHA2 190924Z 25004KT 05/M00 A30 RMK A01 T00541004  RH  066%=      5-min Rain = 0
KHA2 190925Z 25004KT 05/M02 A30 RMK A01 T00511019  RH  060%=      5-min Rain = 0
KHA2 190926Z 25005KT 05/M02 A30 RMK A01 T00491022  RH  060%=      5-min Rain = 0
KHA2 190927Z 25005KT 05/M01 A30 RMK A01 T00491012  RH  065%=      5-min Rain = 0
KHA2 190928Z 26004KT 05/M01 A30 RMK A01 T00481010  RH  066%=      5-min Rain = 0
KHA2 190929Z 26004KT 05/M00 A30 RMK A01 T00481001  RH  071%=      5-min Rain = 0
KHA2 190930Z 26004KT 05/00 A30 RMK A01 T00470004  RH  073%=      5-min Rain = 0
KHA2 190931Z 25004KT 05/01 A30 RMK A01 T00470005  RH  074%=      5-min Rain = 0
KHA2 190932Z 25004KT 05/01 A30 RMK A01 T00470007  RH  076%=      5-min Rain = 0
KHA2 190933Z 25004KT 05/01 A30 RMK A01 T00470009  RH  076%=      5-min Rain = 0
KHA2 190934Z 25004KT 05/01 A30 RMK A01 T00470007  RH  075%=      5-min Rain = 0
KHA2 190935Z 25004KT 05/01 A30 RMK A01 T00470006  RH  075%=      5-min Rain = 0
KHA2 190936Z 26004KT 05/01 A30 RMK A01 T00470007  RH  075%=      5-min Rain = 0
KHA2 190937Z 25004KT 05/00 A30 RMK A01 T00470004  RH  073%=      5-min Rain = 0
KHA2 190938Z 25004KT 05/M00 A30 RMK A01 T00471003  RH  070%=      5-min Rain = 0
KHA2 190939Z 25004KT 05/M01 A30 RMK A01 T00481008  RH  067%=      5-min Rain = 0
KHA2 190940Z 25005KT 05/M01 A30 RMK A01 T00471012  RH  065%=      5-min Rain = 0
KHA2 190941Z 25004KT 05/M01 A30 RMK A01 T00481014  RH  064%=      5-min Rain = 0
KHA2 190942Z 25005KT 05/M01 A30 RMK A01 T00481014  RH  064%=      5-min Rain = 0
KHA2 190943Z 25004KT 05/M01 A30 RMK A01 T00481012  RH  065%=      5-min Rain = 0
KHA2 190944Z 25005KT 05/M01 A30 RMK A01 T00471012  RH  066%=      5-min Rain = 0
KHA2 190945Z 25005KT 05/M01 A30 RMK A01 T00471012  RH  066%=      5-min Rain = 0
KHA2 190946Z 25005KT 05/M01 A30 RMK A01 T00461012  RH  066%=      5-min Rain = 0
KHA2 190947Z 25005KT 05/M01 A30 RMK A01 T00451012  RH  066%=      5-min Rain = 0
KHA2 190948Z 25005KT 04/M02 A30 RMK A01 T00441018  RH  064%=      5-min Rain = 0
KHA2 190949Z 25005KT 04/M02 A30 RMK A01 T00431024  RH  062%=      5-min Rain = 0
KHA2 190950Z 25006KT 04/M03 A30 RMK A01 T00421025  RH  062%=      5-min Rain = 0
KHA2 190951Z 25006KT 04/M02 A30 RMK A01 T00421024  RH  062%=      5-min Rain = 0
KHA2 190952Z 25006KT 04/M02 A30 RMK A01 T00431024  RH  062%=      5-min Rain = 0
KHA2 190953Z 25006KT 05/M02 A30 RMK A01 T00451023  RH  061%=      5-min Rain = 0
KHA2 190954Z 25006KT 05/M02 A30 RMK A01 T00471023  RH  060%=      5-min Rain = 0
KHA2 190955Z 24006KT 05/M02 A30 RMK A01 T00481024  RH  060%=      5-min Rain = 0
KHA2 190956Z 24006KT 05/M02 A30 RMK A01 T00481024  RH  059%=      5-min Rain = 0
KHA2 190957Z 24006KT 05/M02 A30 RMK A01 T00491024  RH  059%=      5-min Rain = 0
KHA2 190958Z 24006KT 05/M03 A30 RMK A01 T00471026  RH  059%=      5-min Rain = 0
KHA2 190959Z 24006KT 05/M03 A30 RMK A01 T00451026  RH  060%=      5-min Rain = 0
KHA2 191000Z 23006KT 04/M03 A30 RMK A01 T00431027  RH  060%=      5-min Rain = 0
KHA2 191001Z 23006KT 04/M03 A30 RMK A01 T00431027  RH  061%=      5-min Rain = 0
KHA2 191002Z 23006KT 04/M03 A30 RMK A01 T00421027  RH  061%=      5-min Rain = 0
KHA2 191003Z 23006KT 04/M03 A30 RMK A01 T00401028  RH  061%=      5-min Rain = 0
KHA2 191004Z 22006KT 04/M03 A2999 RMK A01 T00391029  RH  061%=      5-min Rain = 0
KHA2 191005Z 22006KT 04/M03 A2999 RMK A01 T00371029  RH  062%=      5-min Rain = 0
KHA2 191006Z 22006KT 04/M03 A2999 RMK A01 T00351029  RH  063%=      5-min Rain = 0
KHA2 191007Z 22006KT 03/M03 A2999 RMK A01 T00341029  RH  063%=      5-min Rain = 0
KHA2 191008Z 22005KT 03/M03 A2999 RMK A01 T00331029  RH  064%=      5-min Rain = 0
KHA2 191009Z 22005KT 03/M03 A2999 RMK A01 T00321029  RH  064%=      5-min Rain = 0
KHA2 191010Z 21005KT 03/M03 A2999 RMK A01 T00321028  RH  065%=      5-min Rain = 0
KHA2 191016Z 21005KT 04/M03 A2999 RMK A01 T00361026  RH  064%=      5-min Rain = 0
KHA2 191017Z 22005KT 04/M03 A2999 RMK A01 T00391025  RH  063%=      5-min Rain = 0
KHA2 191018Z 22005KT 04/M02 A2999 RMK A01 T00411024  RH  062%=      5-min Rain = 0
KHA2 191019Z 21005KT 05/M02 A2999 RMK A01 T00461021  RH  062%=      5-min Rain = 0
KHA2 191020Z 21005KT 05/M02 A2999 RMK A01 T00521019  RH  060%=      5-min Rain = 0
KHA2 191021Z 21005KT 06/M02 A2999 RMK A01 T00571020  RH  058%=      5-min Rain = 0
KHA2 191022Z 21006KT 06/M02 A2999 RMK A01 T00611019  RH  056%=      5-min Rain = 0
KHA2 191023Z 21006KT 07/M02 A2999 RMK A01 T00651018  RH  055%=      5-min Rain = 0
KHA2 191024Z 21006KT 07/M02 A2999 RMK A01 T00681019  RH  054%=      5-min Rain = 0
KHA2 191025Z 21006KT 07/M02 A2999 RMK A01 T00691021  RH  053%=      5-min Rain = 0
KHA2 191026Z 21006KT 07/M02 A2999 RMK A01 T00691021  RH  053%=      5-min Rain = 0
KHA2 191027Z 21006KT 07/M02 A2999 RMK A01 T00681021  RH  053%=      5-min Rain = 0
KHA2 191028Z 21006KT 07/M02 A2999 RMK A01 T00651023  RH  054%=      5-min Rain = 0
KHA2 191029Z 21007KT 06/M02 A2999 RMK A01 T00621022  RH  055%=      5-min Rain = 0
KHA2 191030Z 22007KT 06/M02 A2999 RMK A01 T00591023  RH  056%=      5-min Rain = 0
KHA2 191031Z 22007KT 06/M02 A2999 RMK A01 T00571023  RH  057%=      5-min Rain = 0
KHA2 191032Z 22007KT 06/M02 A2999 RMK A01 T00551023  RH  057%=      5-min Rain = 0
KHA2 191033Z 22007KT 05/M02 A2999 RMK A01 T00531023  RH  058%=      5-min Rain = 0
KHA2 191034Z 22007KT 05/M02 A2999 RMK A01 T00521023  RH  059%=      5-min Rain = 0
KHA2 191035Z 22007KT 05/M02 A2999 RMK A01 T00511023  RH  059%=      5-min Rain = 0
KHA2 191036Z 22008KT 05/M02 A2999 RMK A01 T00501023  RH  059%=      5-min Rain = 0
KHA2 191037Z 22008KT 05/M02 A2999 RMK A01 T00491023  RH  060%=      5-min Rain = 0
KHA2 191038Z 22009KT 05/M02 A2999 RMK A01 T00481022  RH  060%=      5-min Rain = 0
KHA2 191039Z 22009KT 05/M02 A2999 RMK A01 T00491022  RH  060%=      5-min Rain = 0
KHA2 191040Z 22009KT 05/M02 A2999 RMK A01 T00491022  RH  060%=      5-min Rain = 0
KHA2 191041Z 22009KT 05/M02 A2999 RMK A01 T00491022  RH  060%=      5-min Rain = 0
KHA2 191042Z 22008KT 05/M02 A2999 RMK A01 T00481022  RH  060%=      5-min Rain = 0
KHA2 191043Z 22008KT 05/M02 A2999 RMK A01 T00471023  RH  060%=      5-min Rain = 0
KHA2 191044Z 22008KT 05/M02 A2999 RMK A01 T00461024  RH  061%=      5-min Rain = 0
KHA2 191045Z 22008KT 05/M02 A2999 RMK A01 T00451024  RH  061%=      5-min Rain = 0
KHA2 191046Z 22008KT 05/M02 A2999 RMK A01 T00451024  RH  061%=      5-min Rain = 0
KHA2 191047Z 22009KT 04/M02 A2999 RMK A01 T00441023  RH  061%=      5-min Rain = 0
KHA2 191048Z 22009KT 04/M02 A2999 RMK A01 T00441023  RH  062%=      5-min Rain = 0
KHA2 191049Z 22009KT 04/M02 A2999 RMK A01 T00431023  RH  062%=      5-min Rain = 0
KHA2 191050Z 22009KT 04/M02 A2999 RMK A01 T00431023  RH  062%=      5-min Rain = 0
KHA2 191051Z 22009KT 04/M02 A2998 RMK A01 T00431023  RH  062%=      5-min Rain = 0
KHA2 191052Z 22010KT 04/M02 A2998 RMK A01 T00431022  RH  062%=      5-min Rain = 0
KHA2 191053Z 22010KT 04/M02 A2998 RMK A01 T00431023  RH  062%=      5-min Rain = 0
KHA2 191054Z 22010KT 04/M02 A2998 RMK A01 T00431023  RH  062%=      5-min Rain = 0
KHA2 191055Z 22010KT 04/M02 A2998 RMK A01 T00431022  RH  062%=      5-min Rain = 0
KHA2 191056Z 22009KT 04/M02 A2998 RMK A01 T00421023  RH  062%=      5-min Rain = 0
KHA2 191057Z 22009KT 04/M02 A2998 RMK A01 T00421023  RH  063%=      5-min Rain = 0
KHA2 191058Z 22009KT 04/M02 A2998 RMK A01 T00411024  RH  063%=      5-min Rain = 0
KHA2 191059Z 22009KT 04/M02 A2998 RMK A01 T00411023  RH  063%=      5-min Rain = 0
KHA2 191100Z 22008KT 04/M02 A2998 RMK A01 T00411023  RH  063%=      5-min Rain = 0
KHA2 191101Z 22008KT 04/M02 A2998 RMK A01 T00401023  RH  063%=      5-min Rain = 0
KHA2 191102Z 22008KT 04/M02 A2998 RMK A01 T00401023  RH  064%=      5-min Rain = 0
KHA2 191103Z 22008KT 04/M02 A2998 RMK A01 T00401023  RH  064%=      5-min Rain = 0
KHA2 191104Z 22008KT 04/M02 A2998 RMK A01 T00401023  RH  064%=      5-min Rain = 0
KHA2 191105Z 22008KT 04/M02 A2998 RMK A01 T00401023  RH  064%=      5-min Rain = 0
KHA2 191106Z 22008KT 04/M02 A2998 RMK A01 T00411023  RH  063%=      5-min Rain = 0
KHA2 191107Z 22008KT 04/M02 A2998 RMK A01 T00411022  RH  063%=      5-min Rain = 0
KHA2 191108Z 22008KT 04/M02 A2998 RMK A01 T00421022  RH  063%=      5-min Rain = 0
KHA2 191109Z 22008KT 04/M02 A2998 RMK A01 T00421023  RH  063%=      5-min Rain = 0
KHA2 191110Z 22008KT 04/M02 A2998 RMK A01 T00421023  RH  063%=      5-min Rain = 0
KHA2 191111Z 22008KT 04/M02 A2998 RMK A01 T00421023  RH  063%=      5-min Rain = 0
KHA2 191112Z 22008KT 04/M02 A2998 RMK A01 T00421022  RH  063%=      5-min Rain = 0
KHA2 191113Z 22008KT 04/M02 A2998 RMK A01 T00421022  RH  063%=      5-min Rain = 0
KHA2 191114Z 22008KT 04/M02 A2998 RMK A01 T00421022  RH  063%=      5-min Rain = 0
KHA2 191115Z 23008KT 04/M02 A2998 RMK A01 T00421021  RH  063%=      5-min Rain = 0
KHA2 191116Z 23008KT 04/M02 A2998 RMK A01 T00421021  RH  063%=      5-min Rain = 0
KHA2 191117Z 23008KT 04/M02 A2998 RMK A01 T00431021  RH  063%=      5-min Rain = 0
KHA2 191118Z 23008KT 04/M02 A2997 RMK A01 T00441020  RH  063%=      5-min Rain = 0
KHA2 191119Z 23007KT 05/M02 A2997 RMK A01 T00451020  RH  063%=      5-min Rain = 0
KHA2 191120Z 23007KT 05/M02 A2997 RMK A01 T00461020  RH  062%=      5-min Rain = 0
KHA2 191121Z 23007KT 05/M02 A2997 RMK A01 T00471020  RH  062%=      5-min Rain = 0
KHA2 191122Z 23008KT 05/M02 A2997 RMK A01 T00471020  RH  062%=      5-min Rain = 0
KHA2 191123Z 23008KT 05/M02 A2997 RMK A01 T00471021  RH  062%=      5-min Rain = 0
KHA2 191124Z 23008KT 05/M02 A2997 RMK A01 T00471021  RH  062%=      5-min Rain = 0
KHA2 191125Z 23007KT 05/M02 A2997 RMK A01 T00471021  RH  062%=      5-min Rain = 0
KHA2 191126Z 23007KT 05/M02 A2997 RMK A01 T00471021  RH  061%=      5-min Rain = 0
KHA2 191127Z 23008KT 05/M02 A2997 RMK A01 T00471021  RH  061%=      5-min Rain = 0
KHA2 191128Z 24008KT 05/M02 A2997 RMK A01 T00471021  RH  062%=      5-min Rain = 0
KHA2 191129Z 23008KT 05/M02 A2997 RMK A01 T00461021  RH  062%=      5-min Rain = 0
KHA2 191130Z 23008KT 05/M02 A2997 RMK A01 T00461021  RH  062%=      5-min Rain = 0
KHA2 191131Z 23008KT 05/M02 A2997 RMK A01 T00461020  RH  062%=      5-min Rain = 0
KHA2 191132Z 23008KT 05/M02 A2997 RMK A01 T00481019  RH  062%=      5-min Rain = 0
KHA2 191133Z 23008KT 05/M02 A2997 RMK A01 T00491019  RH  062%=      5-min Rain = 0
KHA2 191134Z 23009KT 05/M02 A2997 RMK A01 T00501019  RH  061%=      5-min Rain = 0
KHA2 191135Z 23009KT 05/M02 A2997 RMK A01 T00501019  RH  061%=      5-min Rain = 0
KHA2 191136Z 23008KT 05/M02 A2997 RMK A01 T00491020  RH  061%=      5-min Rain = 0
KHA2 191137Z 23008KT 05/M02 A2997 RMK A01 T00481020  RH  061%=      5-min Rain = 0
KHA2 191138Z 23008KT 05/M02 A2997 RMK A01 T00481020  RH  062%=      5-min Rain = 0
KHA2 191139Z 23009KT 05/M02 A2997 RMK A01 T00481020  RH  062%=      5-min Rain = 0
KHA2 191140Z 23009KT 05/M02 A2997 RMK A01 T00481019  RH  062%=      5-min Rain = 0
KHA2 191141Z 23009KT 05/M02 A2997 RMK A01 T00491019  RH  062%=      5-min Rain = 0
KHA2 191142Z 24009KT 05/M02 A2997 RMK A01 T00491019  RH  061%=      5-min Rain = 0
KHA2 191143Z 24009KT 05/M02 A2997 RMK A01 T00501018  RH  061%=      5-min Rain = 0
KHA2 191144Z 24009KT 05/M02 A2997 RMK A01 T00511019  RH  061%=      5-min Rain = 0
KHA2 191145Z 24009KT 05/M02 A2997 RMK A01 T00491020  RH  061%=      5-min Rain = 0
KHA2 191146Z 24009KT 05/M02 A2997 RMK A01 T00481021  RH  061%=      5-min Rain = 0
KHA2 191147Z 24010KT 05/M02 A2997 RMK A01 T00461021  RH  062%=      5-min Rain = 0
KHA2 191148Z 24010KT 05/M02 A2997 RMK A01 T00461021  RH  062%=      5-min Rain = 0
KHA2 191149Z 24010KT 05/M02 A2997 RMK A01 T00451020  RH  062%=      5-min Rain = 0
KHA2 191150Z 24010KT 05/M02 A2997 RMK A01 T00451020  RH  062%=      5-min Rain = 0
KHA2 191151Z 25010KT 05/M02 A2997 RMK A01 T00461020  RH  063%=      5-min Rain = 0
KHA2 191152Z 24009KT 05/M02 A2997 RMK A01 T00451020  RH  063%=      5-min Rain = 0
KHA2 191153Z 24009KT 04/M02 A2997 RMK A01 T00441020  RH  063%=      5-min Rain = 0
KHA2 191154Z 24009KT 04/M02 A2997 RMK A01 T00441020  RH  063%=      5-min Rain = 0
KHA2 191155Z 24009KT 04/M02 A2997 RMK A01 T00441020  RH  063%=      5-min Rain = 0
KHA2 191156Z 24009KT 04/M02 A2997 RMK A01 T00441020  RH  063%=      5-min Rain = 0
KHA2 191157Z 24009KT 04/M02 A2997 RMK A01 T00431021  RH  063%=      5-min Rain = 0
KHA2 191158Z 24009KT 04/M02 A2997 RMK A01 T00421021  RH  064%=      5-min Rain = 0
KHA2 191159Z 24009KT 04/M02 A2997 RMK A01 T00421021  RH  064%=      5-min Rain = 0
KHA2 191200Z 24009KT 04/M02 A2997 RMK A01 T00411021  RH  064%=      5-min Rain = 0
KHA2 191201Z 24008KT 04/M02 A2997 RMK A01 T00401021  RH  065%=      5-min Rain = 0
KHA2 191202Z 24008KT 04/M02 A2997 RMK A01 T00401020  RH  065%=      5-min Rain = 0
KHA2 191203Z 24008KT 04/M02 A2997 RMK A01 T00401020  RH  065%=      5-min Rain = 0
KHA2 191204Z 24008KT 04/M02 A2997 RMK A01 T00401020  RH  065%=      5-min Rain = 0
KHA2 191205Z 25008KT 04/M02 A2997 RMK A01 T00401019  RH  065%=      5-min Rain = 0
KHA2 191206Z 24008KT 04/M02 A2997 RMK A01 T00391020  RH  065%=      5-min Rain = 0
KHA2 191207Z 25008KT 04/M02 A2997 RMK A01 T00391020  RH  065%=      5-min Rain = 0
KHA2 191208Z 24008KT 04/M02 A2997 RMK A01 T00381021  RH  066%=      5-min Rain = 0
KHA2 191209Z 25008KT 04/M02 A2997 RMK A01 T00361021  RH  066%=      5-min Rain = 0
KHA2 191210Z 24008KT 04/M02 A2997 RMK A01 T00361020  RH  067%=      5-min Rain = 0
KHA2 191211Z 25007KT 04/M02 A2997 RMK A01 T00361020  RH  067%=      5-min Rain = 0
KHA2 191212Z 25007KT 04/M02 A2997 RMK A01 T00371019  RH  067%=      5-min Rain = 0
KHA2 191213Z 24007KT 04/M02 A2997 RMK A01 T00371019  RH  067%=      5-min Rain = 0
KHA2 191214Z 24007KT 04/M02 A2997 RMK A01 T00371020  RH  067%=      5-min Rain = 0
KHA2 191215Z 24007KT 04/M02 A2997 RMK A01 T00361020  RH  067%=      5-min Rain = 0
KHA2 191216Z 24006KT 04/M02 A2997 RMK A01 T00351020  RH  067%=      5-min Rain = 0
KHA2 191217Z 24006KT 03/M02 A2997 RMK A01 T00341020  RH  067%=      5-min Rain = 0
KHA2 191218Z 23006KT 03/M02 A2997 RMK A01 T00331021  RH  068%=      5-min Rain = 0
KHA2 191219Z 24006KT 03/M02 A2997 RMK A01 T00321021  RH  068%=      5-min Rain = 0
KHA2 191220Z 24006KT 03/M02 A2996 RMK A01 T00301022  RH  069%=      5-min Rain = 0
KHA2 191221Z 24005KT 03/M02 A2996 RMK A01 T00281023  RH  069%=      5-min Rain = 0
KHA2 191222Z 24005KT 03/M02 A2997 RMK A01 T00271023  RH  069%=      5-min Rain = 0
KHA2 191223Z 24005KT 03/M02 A2997 RMK A01 T00261024  RH  070%=      5-min Rain = 0
KHA2 191224Z 24005KT 02/M02 A2997 RMK A01 T00241024  RH  071%=      5-min Rain = 0
KHA2 191225Z 24005KT 02/M02 A2996 RMK A01 T00231024  RH  071%=      5-min Rain = 0
KHA2 191226Z 24005KT 02/M02 A2996 RMK A01 T00231024  RH  071%=      5-min Rain = 0
KHA2 191227Z 24005KT 02/M02 A2996 RMK A01 T00221024  RH  072%=      5-min Rain = 0
KHA2 191228Z 24006KT 02/M02 A2997 RMK A01 T00221024  RH  072%=      5-min Rain = 0
KHA2 191229Z 24006KT 02/M02 A2997 RMK A01 T00221024  RH  072%=      5-min Rain = 0
KHA2 191230Z 24006KT 02/M02 A2996 RMK A01 T00221023  RH  072%=      5-min Rain = 0
KHA2 191231Z 24007KT 02/M02 A2996 RMK A01 T00221023  RH  072%=      5-min Rain = 0
KHA2 191232Z 24007KT 02/M02 A2996 RMK A01 T00231022  RH  072%=      5-min Rain = 0
KHA2 191233Z 24007KT 02/M02 A2996 RMK A01 T00241022  RH  072%=      5-min Rain = 0
KHA2 191234Z 24008KT 03/M02 A2996 RMK A01 T00261021  RH  071%=      5-min Rain = 0
KHA2 191235Z 24008KT 03/M02 A2996 RMK A01 T00271021  RH  071%=      5-min Rain = 0
KHA2 191236Z 24008KT 03/M02 A2996 RMK A01 T00281021  RH  070%=      5-min Rain = 0
KHA2 191237Z 24008KT 03/M02 A2996 RMK A01 T00291021  RH  070%=      5-min Rain = 0
KHA2 191238Z 24008KT 03/M02 A2996 RMK A01 T00301021  RH  069%=      5-min Rain = 0
KHA2 191239Z 24008KT 03/M02 A2996 RMK A01 T00311020  RH  069%=      5-min Rain = 0
KHA2 191240Z 24008KT 03/M02 A2996 RMK A01 T00321020  RH  069%=      5-min Rain = 0
KHA2 191241Z 24008KT 03/M02 A2996 RMK A01 T00321020  RH  068%=      5-min Rain = 0
KHA2 191242Z 24008KT 03/M02 A2996 RMK A01 T00331020  RH  068%=      5-min Rain = 0
KHA2 191243Z 24008KT 03/M02 A2996 RMK A01 T00341020  RH  068%=      5-min Rain = 0
KHA2 191244Z 24008KT 04/M02 A2996 RMK A01 T00351019  RH  068%=      5-min Rain = 0
KHA2 191245Z 24008KT 04/M02 A2996 RMK A01 T00361019  RH  067%=      5-min Rain = 0
KHA2 191246Z 24008KT 04/M02 A2996 RMK A01 T00351020  RH  067%=      5-min Rain = 0
KHA2 191247Z 23008KT 03/M02 A2996 RMK A01 T00341021  RH  067%=      5-min Rain = 0
KHA2 191248Z 23008KT 03/M02 A2996 RMK A01 T00321022  RH  068%=      5-min Rain = 0
KHA2 191249Z 23008KT 03/M02 A2996 RMK A01 T00311022  RH  068%=      5-min Rain = 0
KHA2 191250Z 23008KT 03/M02 A2996 RMK A01 T00291023  RH  069%=      5-min Rain = 0
KHA2 191251Z 23007KT 03/M02 A2996 RMK A01 T00291022  RH  069%=      5-min Rain = 0
KHA2 191252Z 23007KT 03/M02 A2996 RMK A01 T00281022  RH  070%=      5-min Rain = 0
KHA2 191253Z 23007KT 03/M02 A2996 RMK A01 T00271022  RH  070%=      5-min Rain = 0
KHA2 191254Z 22007KT 03/M02 A2996 RMK A01 T00261023  RH  070%=      5-min Rain = 0
KHA2 191255Z 22007KT 03/M02 A2996 RMK A01 T00251024  RH  071%=      5-min Rain = 0
KHA2 191256Z 22007KT 02/M02 A2996 RMK A01 T00231024  RH  071%=      5-min Rain = 0
KHA2 191257Z 22007KT 02/M03 A2996 RMK A01 T00211025  RH  071%=      5-min Rain = 0
KHA2 191258Z 22007KT 02/M03 A2996 RMK A01 T00201025  RH  072%=      5-min Rain = 0
KHA2 191259Z 22007KT 02/M03 A2996 RMK A01 T00191025  RH  072%=      5-min Rain = 0
KHA2 191300Z 22007KT 02/M03 A2996 RMK A01 T00191025  RH  073%=      5-min Rain = 0
KHA2 191301Z 22007KT 02/M02 A2996 RMK A01 T00191024  RH  073%=      5-min Rain = 0
KHA2 191302Z 22007KT 02/M02 A2996 RMK A01 T00201023  RH  073%=      5-min Rain = 0
KHA2 191303Z 22006KT 02/M02 A2996 RMK A01 T00211022  RH  073%=      5-min Rain = 0
KHA2 191304Z 22006KT 02/M02 A2996 RMK A01 T00221021  RH  073%=      5-min Rain = 0
KHA2 191305Z 23006KT 02/M02 A2996 RMK A01 T00231020  RH  073%=      5-min Rain = 0
KHA2 191306Z 23006KT 02/M02 A2996 RMK A01 T00241020  RH  073%=      5-min Rain = 0
KHA2 191307Z 23006KT 03/M02 A2996 RMK A01 T00251020  RH  072%=      5-min Rain = 0
KHA2 191308Z 24006KT 03/M02 A2996 RMK A01 T00251021  RH  072%=      5-min Rain = 0
KHA2 191309Z 24007KT 03/M02 A2996 RMK A01 T00251021  RH  072%=      5-min Rain = 0
KHA2 191310Z 25007KT 03/M02 A2996 RMK A01 T00251021  RH  071%=      5-min Rain = 0
KHA2 191311Z 25007KT 03/M02 A2996 RMK A01 T00261021  RH  071%=      5-min Rain = 0
KHA2 191312Z 25008KT 03/M02 A2996 RMK A01 T00281021  RH  070%=      5-min Rain = 0
KHA2 191313Z 25008KT 03/M02 A2996 RMK A01 T00281021  RH  070%=      5-min Rain = 0
KHA2 191314Z 25008KT 03/M02 A2996 RMK A01 T00301021  RH  069%=      5-min Rain = 0
KHA2 191315Z 25008KT 03/M02 A2996 RMK A01 T00311020  RH  069%=      5-min Rain = 0
KHA2 191316Z 25008KT 03/M02 A2996 RMK A01 T00311020  RH  069%=      5-min Rain = 0
KHA2 191317Z 25009KT 03/M02 A2996 RMK A01 T00311021  RH  069%=      5-min Rain = 0
KHA2 191318Z 25009KT 03/M02 A2996 RMK A01 T00291021  RH  069%=      5-min Rain = 0
KHA2 191319Z 25009KT 03/M02 A2996 RMK A01 T00301020  RH  070%=      5-min Rain = 0
KHA2 191320Z 25009KT 03/M02 A2996 RMK A01 T00321019  RH  069%=      5-min Rain = 0
KHA2 191321Z 25009KT 03/M02 A2996 RMK A01 T00331019  RH  069%=      5-min Rain = 0
KHA2 191322Z 25009KT 03/M02 A2996 RMK A01 T00331019  RH  069%=      5-min Rain = 0
KHA2 191323Z 25009KT 03/M02 A2996 RMK A01 T00331019  RH  068%=      5-min Rain = 0
KHA2 191324Z 25009KT 03/M02 A2996 RMK A01 T00331019  RH  068%=      5-min Rain = 0
KHA2 191325Z 25008KT 03/M02 A2996 RMK A01 T00341019  RH  068%=      5-min Rain = 0
KHA2 191326Z 25008KT 03/M02 A2996 RMK A01 T00331020  RH  069%=      5-min Rain = 0
KHA2 191327Z 24009KT 03/M02 A2996 RMK A01 T00321019  RH  069%=      5-min Rain = 0
KHA2 191328Z 24009KT 03/M02 A2996 RMK A01 T00311020  RH  069%=      5-min Rain = 0
KHA2 191329Z 24009KT 03/M02 A2996 RMK A01 T00311020  RH  069%=      5-min Rain = 0
KHA2 191330Z 24008KT 03/M02 A2996 RMK A01 T00311019  RH  070%=      5-min Rain = 0
KHA2 191331Z 23008KT 03/M02 A2996 RMK A01 T00311019  RH  070%=      5-min Rain = 0
KHA2 191332Z 23008KT 03/M02 A2996 RMK A01 T00311019  RH  070%=      5-min Rain = 0
KHA2 191333Z 23007KT 03/M02 A2996 RMK A01 T00301020  RH  070%=      5-min Rain = 0
KHA2 191334Z 24007KT 03/M02 A2997 RMK A01 T00291021  RH  070%=      5-min Rain = 0
KHA2 191335Z 24007KT 03/M02 A2997 RMK A01 T00281021  RH  070%=      5-min Rain = 0
KHA2 191336Z 24007KT 03/M02 A2997 RMK A01 T00271021  RH  071%=      5-min Rain = 0
KHA2 191337Z 25008KT 03/M02 A2997 RMK A01 T00271020  RH  071%=      5-min Rain = 0
KHA2 191338Z 25008KT 03/M02 A2997 RMK A01 T00281019  RH  071%=      5-min Rain = 0
KHA2 191339Z 25008KT 03/M02 A2997 RMK A01 T00301018  RH  071%=      5-min Rain = 0
KHA2 191340Z 25009KT 03/M02 A2997 RMK A01 T00331018  RH  069%=      5-min Rain = 0
KHA2 191341Z 25008KT 03/M02 A2997 RMK A01 T00341018  RH  069%=      5-min Rain = 0
KHA2 191342Z 24008KT 03/M02 A2997 RMK A01 T00341018  RH  069%=      5-min Rain = 0
KHA2 191343Z 24008KT 04/M02 A2996 RMK A01 T00351017  RH  068%=      5-min Rain = 0
KHA2 191344Z 24008KT 04/M02 A2996 RMK A01 T00361017  RH  068%=      5-min Rain = 0
KHA2 191345Z 23008KT 04/M02 A2996 RMK A01 T00361017  RH  068%=      5-min Rain = 0
KHA2 191346Z 23008KT 04/M02 A2996 RMK A01 T00361017  RH  068%=      5-min Rain = 0
KHA2 191347Z 23007KT 04/M02 A2996 RMK A01 T00361017  RH  068%=      5-min Rain = 0
KHA2 191348Z 22007KT 04/M02 A2996 RMK A01 T00361017  RH  068%=      5-min Rain = 0
KHA2 191349Z 22007KT 04/M02 A2996 RMK A01 T00361016  RH  069%=      5-min Rain = 0
KHA2 191350Z 22006KT 04/M02 A2996 RMK A01 T00361016  RH  069%=      5-min Rain = 0
KHA2 191351Z 22006KT 04/M02 A2996 RMK A01 T00361016  RH  069%=      5-min Rain = 0
KHA2 191352Z 21007KT 04/M02 A2996 RMK A01 T00361016  RH  069%=      5-min Rain = 0
KHA2 191353Z 21007KT 04/M02 A2996 RMK A01 T00361016  RH  069%=      5-min Rain = 0
KHA2 191354Z 21006KT 04/M02 A2996 RMK A01 T00361015  RH  069%=      5-min Rain = 0
KHA2 191355Z 21006KT 04/M02 A2996 RMK A01 T00361015  RH  069%=      5-min Rain = 0
KHA2 191356Z 21005KT 04/M02 A2996 RMK A01 T00361015  RH  069%=      5-min Rain = 0
KHA2 191357Z 21005KT 04/M01 A2996 RMK A01 T00371014  RH  069%=      5-min Rain = 0
KHA2 191358Z 21005KT 04/M01 A2996 RMK A01 T00381014  RH  069%=      5-min Rain = 0
KHA2 191359Z 21005KT 04/M01 A2996 RMK A01 T00391013  RH  069%=      5-min Rain = 0
KHA2 191400Z 21005KT 04/M01 A2996 RMK A01 T00401012  RH  069%=      5-min Rain = 0
KHA2 191401Z 21005KT 04/M01 A2996 RMK A01 T00411012  RH  068%=      5-min Rain = 0
KHA2 191402Z 21005KT 04/M01 A2996 RMK A01 T00431011  RH  068%=      5-min Rain = 0
KHA2 191403Z 21005KT 05/M01 A2996 RMK A01 T00451010  RH  068%=      5-min Rain = 0
KHA2 191404Z 21005KT 05/M01 A2996 RMK A01 T00471009  RH  067%=      5-min Rain = 0
KHA2 191405Z 21004KT 05/M01 A2996 RMK A01 T00491007  RH  067%=      5-min Rain = 0
KHA2 191406Z 21005KT 05/M01 A2996 RMK A01 T00521007  RH  066%=      5-min Rain = 0
KHA2 191407Z 21005KT 05/M01 A2996 RMK A01 T00541007  RH  065%=      5-min Rain = 0
KHA2 191408Z 21005KT 06/M01 A2996 RMK A01 T00571006  RH  064%=      5-min Rain = 0
KHA2 191409Z 21005KT 06/M01 A2996 RMK A01 T00591006  RH  063%=      5-min Rain = 0
KHA2 191410Z 21005KT 06/M01 A2996 RMK A01 T00601006  RH  063%=      5-min Rain = 0
KHA2 191411Z 22004KT 06/M01 A2996 RMK A01 T00621005  RH  062%=      5-min Rain = 0
KHA2 191412Z 22005KT 06/M00 A2996 RMK A01 T00631004  RH  062%=      5-min Rain = 0
KHA2 191413Z 22005KT 06/M00 A2996 RMK A01 T00641003  RH  062%=      5-min Rain = 0
KHA2 191414Z 23005KT 07/M00 A2997 RMK A01 T00651004  RH  061%=      5-min Rain = 0
KHA2 191415Z 24005KT 07/M01 A2997 RMK A01 T00651005  RH  061%=      5-min Rain = 0
KHA2 191416Z 24005KT 07/M01 A2997 RMK A01 T00661005  RH  061%=      5-min Rain = 0
KHA2 191417Z 24005KT 07/M01 A2997 RMK A01 T00651005  RH  061%=      5-min Rain = 0
KHA2 191418Z 24005KT 07/M01 A2997 RMK A01 T00661006  RH  060%=      5-min Rain = 0
KHA2 191419Z 23006KT 07/M01 A2997 RMK A01 T00661005  RH  060%=      5-min Rain = 0
KHA2 191420Z 23005KT 07/M01 A2997 RMK A01 T00671005  RH  060%=      5-min Rain = 0
KHA2 191421Z 23005KT 07/M01 A2997 RMK A01 T00681005  RH  060%=      5-min Rain = 0
KHA2 191422Z 23005KT 07/M00 A2997 RMK A01 T00681004  RH  060%=      5-min Rain = 0
KHA2 191423Z 23005KT 07/M00 A2997 RMK A01 T00691003  RH  060%=      5-min Rain = 0
KHA2 191424Z 23005KT 07/M00 A2997 RMK A01 T00691003  RH  060%=      5-min Rain = 0
KHA2 191425Z 23005KT 07/M00 A2997 RMK A01 T00701003  RH  060%=      5-min Rain = 0
KHA2 191426Z 23005KT 07/M00 A2997 RMK A01 T00701002  RH  060%=      5-min Rain = 0
KHA2 191427Z 24005KT 07/M00 A2997 RMK A01 T00701001  RH  061%=      5-min Rain = 0
KHA2 191428Z 23005KT 07/00 A2997 RMK A01 T00700001  RH  061%=      5-min Rain = 0
KHA2 191429Z 23006KT 07/00 A2997 RMK A01 T00710002  RH  061%=      5-min Rain = 0
KHA2 191430Z 24006KT 07/00 A2997 RMK A01 T00710001  RH  061%=      5-min Rain = 0
KHA2 191431Z 23005KT 07/00 A2997 RMK A01 T00730001  RH  061%=      5-min Rain = 0
KHA2 191432Z 23006KT 07/00 A2997 RMK A01 T00740003  RH  061%=      5-min Rain = 0
KHA2 191433Z 23006KT 08/00 A2997 RMK A01 T00760003  RH  060%=      5-min Rain = 0
KHA2 191434Z 23006KT 08/00 A2997 RMK A01 T00780003  RH  059%=      5-min Rain = 0
KHA2 191435Z 22006KT 08/00 A2997 RMK A01 T00800004  RH  059%=      5-min Rain = 0
KHA2 191436Z 22006KT 08/00 A2997 RMK A01 T00820004  RH  058%=      5-min Rain = 0
KHA2 191437Z 22006KT 09/01 A2997 RMK A01 T00850005  RH  057%=      5-min Rain = 0
KHA2 191438Z 21006KT 09/00 A2997 RMK A01 T00870003  RH  056%=      5-min Rain = 0
KHA2 191439Z 21006KT 09/00 A2997 RMK A01 T00900004  RH  055%=      5-min Rain = 0
KHA2 191440Z 21006KT 09/01 A2997 RMK A01 T00920005  RH  054%=      5-min Rain = 0
KHA2 191441Z 21007KT 09/00 A2997 RMK A01 T00940003  RH  053%=      5-min Rain = 0
KHA2 191442Z 20006KT 10/00 A2997 RMK A01 T00950004  RH  053%=      5-min Rain = 0
KHA2 191443Z 20005KT 10/00 A2997 RMK A01 T00960004  RH  053%=      5-min Rain = 0
KHA2 191444Z 20007KT 10/01 A2997 RMK A01 T00980006  RH  053%=      5-min Rain = 0
KHA2 191445Z 21007KT 10/01 A2997 RMK A01 T01000006  RH  052%=      5-min Rain = 0
KHA2 191446Z 21007KT 10/01 A2997 RMK A01 T01010007  RH  052%=      5-min Rain = 0
KHA2 191447Z 21007KT 10/01 A2997 RMK A01 T01030008  RH  052%=      5-min Rain = 0
KHA2 191448Z 21007KT 10/01 A2997 RMK A01 T01040009  RH  052%=      5-min Rain = 0
KHA2 191449Z 20007KT 11/01 A2997 RMK A01 T01050008  RH  051%=      5-min Rain = 0
KHA2 191450Z 19007KT 11/01 A2997 RMK A01 T01050007  RH  051%=      5-min Rain = 0
KHA2 191451Z 20008KT 11/01 A2997 RMK A01 T01060006  RH  050%=      5-min Rain = 0
KHA2 191452Z 20007KT 11/01 A2997 RMK A01 T01060007  RH  050%=      5-min Rain = 0
KHA2 191453Z 20008KT 11/01 A2997 RMK A01 T01070007  RH  050%=      5-min Rain = 0
KHA2 191454Z 19008KT 11/01 A2997 RMK A01 T01060006  RH  050%=      5-min Rain = 0
KHA2 191455Z 19006KT 11/01 A2997 RMK A01 T01060006  RH  050%=      5-min Rain = 0
KHA2 191456Z 20008KT 11/01 A2997 RMK A01 T01060008  RH  051%=      5-min Rain = 0
KHA2 191457Z 19006KT 11/01 A2997 RMK A01 T01070008  RH  051%=      5-min Rain = 0
KHA2 191458Z 19006KT 11/01 A2997 RMK A01 T01080011  RH  051%=      5-min Rain = 0
KHA2 191459Z 19007KT 11/01 A2997 RMK A01 T01090012  RH  051%=      5-min Rain = 0
KHA2 191500Z 20008KT 11/01 A2997 RMK A01 T01100010  RH  050%=      5-min Rain = 0
KHA2 191501Z 20009KT 11/01 A2997 RMK A01 T01100010  RH  050%=      5-min Rain = 0
KHA2 191502Z 20009KT 11/01 A2997 RMK A01 T01110010  RH  050%=      5-min Rain = 0
KHA2 191503Z 19007KT 11/01 A2997 RMK A01 T01100011  RH  050%=      5-min Rain = 0
KHA2 191504Z 20008KT 11/01 A2997 RMK A01 T01110014  RH  051%=      5-min Rain = 0
KHA2 191505Z 19007KT 11/01 A2997 RMK A01 T01130014  RH  051%=      5-min Rain = 0
KHA2 191506Z 20007KT 11/02 A2997 RMK A01 T01140015  RH  050%=      5-min Rain = 0
KHA2 191507Z 20008KT 12/02 A2996 RMK A01 T01160017  RH  051%=      5-min Rain = 0
KHA2 191508Z 19008KT 12/02 A2996 RMK A01 T01180016  RH  050%=      5-min Rain = 0
KHA2 191509Z 19009KT 12/02 A2997 RMK A01 T01190017  RH  050%=      5-min Rain = 0
KHA2 191510Z 19010KT 12/02 A2996 RMK A01 T01200015  RH  048%=      5-min Rain = 0
KHA2 191511Z 19008KT 12/02 A2996 RMK A01 T01200015  RH  049%=      5-min Rain = 0
KHA2 191512Z 19010KT 12/02 A2996 RMK A01 T01200017  RH  049%=      5-min Rain = 0
KHA2 191513Z 19009KT 12/02 A2996 RMK A01 T01230016  RH  048%=      5-min Rain = 0
KHA2 191514Z 19009KT 13/02 A2996 RMK A01 T01250019  RH  048%=      5-min Rain = 0
KHA2 191515Z 19008KT 13/02 A2996 RMK A01 T01270019  RH  048%=      5-min Rain = 0
KHA2 191516Z 19011KT 13/02 A2996 RMK A01 T01280019  RH  047%=      5-min Rain = 0
KHA2 191517Z 19010KT 13/02 A2996 RMK A01 T01280018  RH  047%=      5-min Rain = 0
KHA2 191518Z 19009KT 13/02 A2996 RMK A01 T01290021  RH  048%=      5-min Rain = 0
KHA2 191519Z 20009KT 13/02 A2996 RMK A01 T01310021  RH  047%=      5-min Rain = 0
KHA2 191520Z 20010KT 13/02 A2996 RMK A01 T01310021  RH  047%=      5-min Rain = 0
KHA2 191521Z 20010KT 13/02 A2996 RMK A01 T01320020  RH  047%=      5-min Rain = 0
KHA2 191522Z 20007KT 13/02 A2996 RMK A01 T01320021  RH  047%=      5-min Rain = 0
KHA2 191523Z 20008KT 13/02 A2997 RMK A01 T01320023  RH  048%=      5-min Rain = 0
KHA2 191524Z 20010KT 13/02 A2997 RMK A01 T01320022  RH  047%=      5-min Rain = 0
KHA2 191525Z 20009KT 13/02 A2997 RMK A01 T01320022  RH  047%=      5-min Rain = 0
KHA2 191526Z 20009KT 13/02 A2997 RMK A01 T01320023  RH  048%=      5-min Rain = 0
KHA2 191527Z 21010KT 13/02 A2997 RMK A01 T01320023  RH  048%=      5-min Rain = 0
KHA2 191528Z 21011KT 13/02 A2996 RMK A01 T01320022  RH  047%=      5-min Rain = 0
KHA2 191529Z 20010KT 13/02 A2997 RMK A01 T01330021  RH  047%=      5-min Rain = 0
KHA2 191530Z 21010KT 13/02 A2997 RMK A01 T01330023  RH  047%=      5-min Rain = 0
KHA2 191531Z 21011KT 13/02 A2997 RMK A01 T01330022  RH  047%=      5-min Rain = 0
KHA2 191532Z 21010KT 13/02 A2997 RMK A01 T01340023  RH  047%=      5-min Rain = 0
KHA2 191533Z 20009KT 14/02 A2997 RMK A01 T01350022  RH  046%=      5-min Rain = 0
KHA2 191534Z 21010KT 14/02 A2997 RMK A01 T01370023  RH  046%=      5-min Rain = 0
KHA2 191535Z 21010KT 14/02 A2997 RMK A01 T01390024  RH  046%=      5-min Rain = 0
KHA2 191536Z 21009KT 14/03 A2997 RMK A01 T01410025  RH  045%=      5-min Rain = 0
KHA2 191537Z 21010KT 14/03 A2997 RMK A01 T01420025  RH  045%=      5-min Rain = 0
KHA2 191538Z 22011KT 14/02 A2997 RMK A01 T01430023  RH  044%=      5-min Rain = 0
KHA2 191539Z 21013KT 14/02 A2997 RMK A01 T01440022  RH  044%=      5-min Rain = 0
KHA2 191540Z 21014KT 14/02 A2997 RMK A01 T01440018  RH  043%=      5-min Rain = 0
KHA2 191541Z 21012KT 14/02 A2997 RMK A01 T01440019  RH  043%=      5-min Rain = 0
KHA2 191542Z 21011KT 14/02 A2997 RMK A01 T01440019  RH  043%=      5-min Rain = 0
KHA2 191543Z 21011KT 14/02 A2997 RMK A01 T01430020  RH  043%=      5-min Rain = 0
KHA2 191544Z 21010KT 14/02 A2997 RMK A01 T01430021  RH  044%=      5-min Rain = 0
KHA2 191545Z 21011KT 14/02 A2997 RMK A01 T01440021  RH  043%=      5-min Rain = 0
KHA2 191546Z 21010KT 15/02 A2997 RMK A01 T01460021  RH  043%=      5-min Rain = 0
KHA2 191547Z 21011KT 15/02 A2997 RMK A01 T01470021  RH  042%=      5-min Rain = 0
KHA2 191548Z 22012KT 15/02 A2997 RMK A01 T01480020  RH  042%=      5-min Rain = 0
KHA2 191549Z 22012KT 15/02 A2997 RMK A01 T01480019  RH  042%=      5-min Rain = 0
KHA2 191550Z 22011KT 15/02 A2997 RMK A01 T01490020  RH  042%=      5-min Rain = 0
KHA2 191551Z 21012KT 15/02 A2997 RMK A01 T01500021  RH  042%=      5-min Rain = 0
KHA2 191552Z 20011KT 15/02 A2997 RMK A01 T01510021  RH  041%=      5-min Rain = 0
KHA2 191553Z 20011KT 15/02 A2997 RMK A01 T01530023  RH  042%=      5-min Rain = 0
KHA2 191554Z 20011KT 15/02 A2997 RMK A01 T01540023  RH  041%=      5-min Rain = 0
KHA2 191555Z 20012KT 16/02 A2997 RMK A01 T01550022  RH  041%=      5-min Rain = 0
KHA2 191556Z 21010KT 16/02 A2997 RMK A01 T01560024  RH  041%=      5-min Rain = 0
KHA2 191557Z 21013KT 16/02 A2997 RMK A01 T01570022  RH  040%=      5-min Rain = 0
KHA2 191558Z 21013KT 16/02 A2997 RMK A01 T01560018  RH  039%=      5-min Rain = 0
KHA2 191559Z 21011KT 15/02 A2997 RMK A01 T01540021  RH  040%=      5-min Rain = 0
KHA2 191600Z 21012KT 16/02 A2997 RMK A01 T01550021  RH  040%=      5-min Rain = 0
KHA2 191601Z 20010KT 16/02 A2997 RMK A01 T01550021  RH  040%=      5-min Rain = 0
KHA2 191602Z 20011KT 16/02 A2997 RMK A01 T01550022  RH  041%=      5-min Rain = 0
KHA2 191603Z 20013KT 16/02 A2997 RMK A01 T01550021  RH  040%=      5-min Rain = 0
KHA2 191604Z 20011KT 16/02 A2997 RMK A01 T01550018  RH  040%=      5-min Rain = 0
KHA2 191605Z 20012KT 16/02 A2997 RMK A01 T01550020  RH  040%=      5-min Rain = 0
KHA2 191606Z 20012KT 16/02 A2997 RMK A01 T01550020  RH  040%=      5-min Rain = 0
KHA2 191607Z 20013KT 16/02 A2997 RMK A01 T01560020  RH  040%=      5-min Rain = 0
KHA2 191608Z 20012KT 16/02 A2997 RMK A01 T01560020  RH  040%=      5-min Rain = 0
KHA2 191609Z 21011KT 16/02 A2997 RMK A01 T01560020  RH  040%=      5-min Rain = 0
KHA2 191610Z 21013KT 16/02 A2997 RMK A01 T01570021  RH  040%=      5-min Rain = 0
KHA2 191611Z 20013KT 16/02 A2996 RMK A01 T01570020  RH  039%=      5-min Rain = 0
KHA2 191612Z 21013KT 16/02 A2997 RMK A01 T01580021  RH  040%=      5-min Rain = 0
KHA2 191613Z 20012KT 16/02 A2997 RMK A01 T01590021  RH  039%=      5-min Rain = 0
KHA2 191614Z 21011KT 16/02 A2997 RMK A01 T01600021  RH  039%=      5-min Rain = 0
KHA2 191615Z 21013KT 16/02 A2997 RMK A01 T01610024  RH  039%=      5-min Rain = 0
KHA2 191616Z 21013KT 16/02 A2996 RMK A01 T01620021  RH  039%=      5-min Rain = 0
KHA2 191617Z 20013KT 16/02 A2996 RMK A01 T01630020  RH  038%=      5-min Rain = 0
KHA2 191618Z 21011KT 16/02 A2996 RMK A01 T01640022  RH  038%=      5-min Rain = 0
KHA2 191619Z 20010KT 17/03 A2996 RMK A01 T01670025  RH  039%=      5-min Rain = 0
KHA2 191620Z 20012KT 17/03 A2996 RMK A01 T01700027  RH  038%=      5-min Rain = 0
KHA2 191621Z 20013KT 17/02 A2996 RMK A01 T01720024  RH  037%=      5-min Rain = 0
KHA2 191622Z 20012KT 17/02 A2996 RMK A01 T01720022  RH  036%=      5-min Rain = 0
KHA2 191623Z 20015KT 18/02 A2996 RMK A01 T01750023  RH  036%=      5-min Rain = 0
KHA2 191624Z 20013KT 18/02 A2996 RMK A01 T01750018  RH  035%=      5-min Rain = 0
KHA2 191625Z 20014KT 17/02 A2996 RMK A01 T01740018  RH  035%=      5-min Rain = 0
KHA2 191626Z 20013KT 17/02 A2996 RMK A01 T01740019  RH  035%=      5-min Rain = 0
KHA2 191627Z 20014KT 18/02 A2996 RMK A01 T01760018  RH  035%=      5-min Rain = 0
KHA2 191628Z 20015KT 18/02 A2996 RMK A01 T01770018  RH  034%=      5-min Rain = 0
KHA2 191629Z 20014KT 18/02 A2996 RMK A01 T01780017  RH  034%=      5-min Rain = 0
KHA2 191630Z 20015KT 18/02 A2996 RMK A01 T01770016  RH  034%=      5-min Rain = 0
KHA2 191631Z 19013KT 18/02 A2996 RMK A01 T01780017  RH  034%=      5-min Rain = 0
KHA2 191632Z 19013KT 18/02 A2996 RMK A01 T01790018  RH  034%=      5-min Rain = 0
KHA2 191633Z 19012KT 18/02 A2996 RMK A01 T01800018  RH  034%=      5-min Rain = 0
KHA2 191634Z 20013KT 18/02 A2996 RMK A01 T01820021  RH  034%=      5-min Rain = 0
KHA2 191635Z 19013KT 18/02 A2996 RMK A01 T01820019  RH  033%=      5-min Rain = 0
KHA2 191636Z 20013KT 18/02 A2996 RMK A01 T01820019  RH  033%=      5-min Rain = 0
KHA2 191637Z 20013KT 18/02 A2996 RMK A01 T01820018  RH  033%=      5-min Rain = 0
KHA2 191638Z 20014KT 18/02 A2996 RMK A01 T01820018  RH  033%=      5-min Rain = 0
KHA2 191639Z 20012KT 18/02 A2996 RMK A01 T01820017  RH  033%=      5-min Rain = 0
KHA2 191640Z 20013KT 18/02 A2996 RMK A01 T01840017  RH  033%=      5-min Rain = 0
KHA2 191641Z 19013KT 18/02 A2995 RMK A01 T01840016  RH  032%=      5-min Rain = 0
KHA2 191642Z 18014KT 19/02 A2996 RMK A01 T01850017  RH  032%=      5-min Rain = 0
KHA2 191643Z 18014KT 19/02 A2995 RMK A01 T01860015  RH  032%=      5-min Rain = 0
KHA2 191644Z 18016KT 19/01 A2995 RMK A01 T01850012  RH  031%=      5-min Rain = 0
KHA2 191645Z 19016KT 18/01 A2995 RMK A01 T01840011  RH  031%=      5-min Rain = 0
KHA2 191646Z 19014KT 18/01 A2995 RMK A01 T01820011  RH  032%=      5-min Rain = 0
KHA2 191647Z 18015KT 18/01 A2995 RMK A01 T01820014  RH  033%=      5-min Rain = 0
KHA2 191648Z 19013KT 18/01 A2995 RMK A01 T01820012  RH  032%=      5-min Rain = 0
KHA2 191649Z 19014KT 18/01 A2995 RMK A01 T01840014  RH  032%=      5-min Rain = 0
KHA2 191650Z 19013KT 19/01 A2995 RMK A01 T01850012  RH  031%=      5-min Rain = 0
KHA2 191651Z 19014KT 19/02 A2995 RMK A01 T01870016  RH  032%=      5-min Rain = 0
KHA2 191652Z 19014KT 19/02 A2995 RMK A01 T01880015  RH  031%=      5-min Rain = 0
KHA2 191653Z 18013KT 19/02 A2995 RMK A01 T01880015  RH  031%=      5-min Rain = 0
KHA2 191654Z 17015KT 19/02 A2995 RMK A01 T01900015  RH  031%=      5-min Rain = 0
KHA2 191655Z 18016KT 19/01 A2995 RMK A01 T01910014  RH  030%=      5-min Rain = 0
KHA2 191656Z 18014KT 19/01 A2995 RMK A01 T01910012  RH  030%=      5-min Rain = 0
KHA2 191657Z 18016KT 19/01 A2995 RMK A01 T01910013  RH  031%=      5-min Rain = 0
KHA2 191658Z 18015KT 19/01 A2995 RMK A01 T01910013  RH  030%=      5-min Rain = 0
KHA2 191659Z 18013KT 19/01 A2995 RMK A01 T01920014  RH  030%=      5-min Rain = 0
KHA2 191700Z 17016KT 19/01 A2995 RMK A01 T01930013  RH  030%=      5-min Rain = 0
KHA2 191701Z 18015KT 19/01 A2995 RMK A01 T01940012  RH  030%=      5-min Rain = 0
KHA2 191702Z 18016KT 20/01 A2995 RMK A01 T01950014  RH  030%=      5-min Rain = 0
KHA2 191703Z 18017KT 20/01 A2995 RMK A01 T01950011  RH  029%=      5-min Rain = 0
KHA2 191704Z 18018KT 19/01 A2995 RMK A01 T01930009  RH  029%=      5-min Rain = 0
KHA2 191705Z 18016KT 19/01 A2995 RMK A01 T01920009  RH  029%=      5-min Rain = 0
KHA2 191706Z 18017KT 19/01 A2995 RMK A01 T01930009  RH  029%=      5-min Rain = 0
KHA2 191707Z 18015KT 19/01 A2995 RMK A01 T01920009  RH  029%=      5-min Rain = 0
KHA2 191708Z 18015KT 19/01 A2994 RMK A01 T01920010  RH  030%=      5-min Rain = 0
KHA2 191709Z 18014KT 19/01 A2994 RMK A01 T01910010  RH  030%=      5-min Rain = 0
KHA2 191710Z 18012KT 19/01 A2994 RMK A01 T01920013  RH  030%=      5-min Rain = 0
KHA2 191711Z 19015KT 19/01 A2994 RMK A01 T01930013  RH  030%=      5-min Rain = 0
KHA2 191712Z 20015KT 20/01 A2994 RMK A01 T01950013  RH  030%=      5-min Rain = 0
KHA2 191713Z 20015KT 20/02 A2994 RMK A01 T01950015  RH  030%=      5-min Rain = 0
KHA2 191714Z 19015KT 20/02 A2994 RMK A01 T01960015  RH  030%=      5-min Rain = 0
KHA2 191715Z 18015KT 20/02 A2994 RMK A01 T01960016  RH  030%=      5-min Rain = 0
KHA2 191716Z 18015KT 20/01 A2994 RMK A01 T01970013  RH  029%=      5-min Rain = 0
KHA2 191717Z 18016KT 20/01 A2994 RMK A01 T01970011  RH  029%=      5-min Rain = 0
KHA2 191718Z 18016KT 20/01 A2994 RMK A01 T01950011  RH  029%=      5-min Rain = 0
KHA2 191719Z 18015KT 20/01 A2994 RMK A01 T01950010  RH  029%=      5-min Rain = 0
KHA2 191720Z 18013KT 20/02 A2994 RMK A01 T01950015  RH  030%=      5-min Rain = 0
KHA2 191721Z 19014KT 20/02 A2994 RMK A01 T01990018  RH  030%=      5-min Rain = 0
KHA2 191722Z 19013KT 20/02 A2994 RMK A01 T02000017  RH  030%=      5-min Rain = 0
KHA2 191723Z 20014KT 20/02 A2993 RMK A01 T02000016  RH  029%=      5-min Rain = 0
KHA2 191724Z 19014KT 20/02 A2993 RMK A01 T02010018  RH  030%=      5-min Rain = 0
KHA2 191725Z 20017KT 20/01 A2993 RMK A01 T02020014  RH  029%=      5-min Rain = 0
KHA2 191726Z 19015KT 20/01 A2993 RMK A01 T02010013  RH  029%=      5-min Rain = 0
KHA2 191727Z 20013KT 20/02 A2993 RMK A01 T02000015  RH  029%=      5-min Rain = 0
KHA2 191728Z 20013KT 20/02 A2993 RMK A01 T02020019  RH  030%=      5-min Rain = 0
KHA2 191729Z 20012KT 20/02 A2993 RMK A01 T02040017  RH  029%=      5-min Rain = 0
KHA2 191730Z 20014KT 21/02 A2993 RMK A01 T02050018  RH  029%=      5-min Rain = 0
KHA2 191731Z 19017KT 21/02 A2993 RMK A01 T02050015  RH  028%=      5-min Rain = 0
KHA2 191732Z 19016KT 20/01 A2993 RMK A01 T02030010  RH  028%=      5-min Rain = 0
KHA2 191733Z 19016KT 20/01 A2993 RMK A01 T02020010  RH  028%=      5-min Rain = 0
KHA2 191734Z 19016KT 20/01 A2993 RMK A01 T02030012  RH  028%=      5-min Rain = 0
KHA2 191735Z 19015KT 20/01 A2993 RMK A01 T02030012  RH  028%=      5-min Rain = 0
KHA2 191736Z 20016KT 20/01 A2993 RMK A01 T02040011  RH  028%=      5-min Rain = 0
KHA2 191737Z 20016KT 21/01 A2992 RMK A01 T02050012  RH  028%=      5-min Rain = 0
KHA2 191738Z 20015KT 21/01 A2992 RMK A01 T02060012  RH  027%=      5-min Rain = 0
KHA2 191739Z 19013KT 21/01 A2992 RMK A01 T02070014  RH  028%=      5-min Rain = 0
KHA2 191740Z 20014KT 21/02 A2992 RMK A01 T02100017  RH  028%=      5-min Rain = 0
KHA2 191741Z 19015KT 21/01 A2992 RMK A01 T02120013  RH  027%=      5-min Rain = 0
KHA2 191742Z 19016KT 21/01 A2992 RMK A01 T02130010  RH  026%=      5-min Rain = 0
KHA2 191743Z 19016KT 21/01 A2992 RMK A01 T02130008  RH  025%=      5-min Rain = 0
KHA2 191744Z 20016KT 22/01 A2992 RMK A01 T02150012  RH  026%=      5-min Rain = 0
KHA2 191745Z 19015KT 22/01 A2992 RMK A01 T02170011  RH  025%=      5-min Rain = 0
KHA2 191746Z 19014KT 22/01 A2992 RMK A01 T02170010  RH  025%=      5-min Rain = 0
KHA2 191747Z 19018G23KT 22/01 A2992 RMK A01 T02190011  RH  025%=      5-min Rain = 0
KHA2 191748Z 19019KT 22/01 A2992 RMK A01 T02190006  RH  024%=      5-min Rain = 0
KHA2 191749Z 20018KT 22/01 A2992 RMK A01 T02180005  RH  024%=      5-min Rain = 0
KHA2 191750Z 20019KT 22/00 A2992 RMK A01 T02180004  RH  024%=      5-min Rain = 0
KHA2 191751Z 20015KT 22/01 A2992 RMK A01 T02190008  RH  025%=      5-min Rain = 0
KHA2 191752Z 20017KT 22/01 A2992 RMK A01 T02210007  RH  024%=      5-min Rain = 0
KHA2 191753Z 19016KT 22/01 A2992 RMK A01 T02210006  RH  024%=      5-min Rain = 0
KHA2 191754Z 19015KT 22/01 A2992 RMK A01 T02200007  RH  024%=      5-min Rain = 0
KHA2 191755Z 19018KT 22/01 A2992 RMK A01 T02210008  RH  024%=      5-min Rain = 0
KHA2 191756Z 20016KT 22/01 A2992 RMK A01 T02200006  RH  024%=      5-min Rain = 0
KHA2 191757Z 20016KT 22/01 A2992 RMK A01 T02190007  RH  024%=      5-min Rain = 0
KHA2 191758Z 20015KT 22/01 A2991 RMK A01 T02190009  RH  025%=      5-min Rain = 0
KHA2 191759Z 19016KT 22/01 A2991 RMK A01 T02200010  RH  025%=      5-min Rain = 0
KHA2 191800Z 19017KT 22/01 A2991 RMK A01 T02200007  RH  024%=      5-min Rain = 0
KHA2 191801Z 19017KT 22/01 A2991 RMK A01 T02180007  RH  025%=      5-min Rain = 0
KHA2 191802Z 19017KT 22/00 A2991 RMK A01 T02160004  RH  024%=      5-min Rain = 0
KHA2 191803Z 19017KT 21/00 A2991 RMK A01 T02130003  RH  025%=      5-min Rain = 0
KHA2 191804Z 19016KT 21/00 A2991 RMK A01 T02110003  RH  025%=      5-min Rain = 0
KHA2 191805Z 19016KT 21/01 A2991 RMK A01 T02110006  RH  025%=      5-min Rain = 0
KHA2 191806Z 19015KT 21/00 A2991 RMK A01 T02100004  RH  025%=      5-min Rain = 0
KHA2 191807Z 19016KT 21/01 A2991 RMK A01 T02100007  RH  026%=      5-min Rain = 0
KHA2 191808Z 20016KT 21/01 A2991 RMK A01 T02100006  RH  026%=      5-min Rain = 0
KHA2 191809Z 19013KT 21/01 A2991 RMK A01 T02110007  RH  026%=      5-min Rain = 0
KHA2 191810Z 19014KT 21/01 A2991 RMK A01 T02140009  RH  026%=      5-min Rain = 0
KHA2 191811Z 19015KT 22/01 A2991 RMK A01 T02160006  RH  025%=      5-min Rain = 0
KHA2 191812Z 20017KT 22/01 A299 RMK A01 T02170006  RH  025%=      5-min Rain = 0
KHA2 191813Z 20014KT 22/01 A299 RMK A01 T02180005  RH  024%=      5-min Rain = 0
KHA2 191814Z 19015KT 22/01 A299 RMK A01 T02180009  RH  025%=      5-min Rain = 0
KHA2 191815Z 20016KT 22/01 A299 RMK A01 T02190008  RH  025%=      5-min Rain = 0
KHA2 191816Z 20017KT 22/01 A299 RMK A01 T02190006  RH  024%=      5-min Rain = 0
KHA2 191817Z 20016KT 22/01 A299 RMK A01 T02190006  RH  024%=      5-min Rain = 0
KHA2 191818Z 20016KT 22/01 A299 RMK A01 T02210007  RH  024%=      5-min Rain = 0
KHA2 191819Z 20017KT 22/01 A299 RMK A01 T02210006  RH  024%=      5-min Rain = 0
KHA2 191820Z 20019KT 22/01 A299 RMK A01 T02220006  RH  024%=      5-min Rain = 0
KHA2 191821Z 20017KT 22/00 A299 RMK A01 T02230004  RH  023%=      5-min Rain = 0
KHA2 191822Z 19018KT 22/00 A299 RMK A01 T02230004  RH  023%=      5-min Rain = 0
KHA2 191823Z 20018KT 22/00 A299 RMK A01 T02230003  RH  023%=      5-min Rain = 0
KHA2 191824Z 20018KT 22/00 A299 RMK A01 T02230003  RH  023%=      5-min Rain = 0
KHA2 191825Z 20017KT 22/00 A299 RMK A01 T02240004  RH  023%=      5-min Rain = 0
KHA2 191826Z 19016KT 22/01 A2989 RMK A01 T02230005  RH  023%=      5-min Rain = 0
KHA2 191827Z 19019KT 23/01 A2989 RMK A01 T02250005  RH  023%=      5-min Rain = 0
KHA2 191828Z 19019KT 23/00 A2989 RMK A01 T02250001  RH  023%=      5-min Rain = 0
KHA2 191829Z 19017KT 23/00 A2989 RMK A01 T02250001  RH  023%=      5-min Rain = 0
KHA2 191830Z 19018KT 23/00 A2989 RMK A01 T02250000  RH  022%=      5-min Rain = 0
KHA2 191831Z 20020KT 23/00 A2989 RMK A01 T02260001  RH  023%=      5-min Rain = 0
KHA2 191832Z 20019KT 23/00 A2989 RMK A01 T02260001  RH  023%=      5-min Rain = 0
KHA2 191833Z 20019KT 23/00 A2989 RMK A01 T02250003  RH  023%=      5-min Rain = 0
KHA2 191834Z 20017KT 23/00 A2989 RMK A01 T02260004  RH  023%=      5-min Rain = 0
KHA2 191835Z 20017KT 23/01 A2989 RMK A01 T02290007  RH  023%=      5-min Rain = 0
KHA2 191836Z 19019KT 23/00 A2989 RMK A01 T02300004  RH  022%=      5-min Rain = 0
KHA2 191837Z 19018KT 23/00 A2989 RMK A01 T02290004  RH  022%=      5-min Rain = 0
KHA2 191838Z 20016KT 23/01 A2989 RMK A01 T02290005  RH  023%=      5-min Rain = 0
KHA2 191839Z 21020KT 23/00 A2988 RMK A01 T02290004  RH  022%=      5-min Rain = 0
KHA2 191840Z 20020G25KT 23/00 A2988 RMK A01 T02300003  RH  022%=      5-min Rain = 0
KHA2 191841Z 20017KT 23/00 A2988 RMK A01 T02290003  RH  022%=      5-min Rain = 0
KHA2 191842Z 20016KT 23/01 A2988 RMK A01 T02300006  RH  023%=      5-min Rain = 0
KHA2 191843Z 20019KT 23/01 A2988 RMK A01 T02310005  RH  022%=      5-min Rain = 0
KHA2 191844Z 21019KT 23/00 A2988 RMK A01 T02320004  RH  022%=      5-min Rain = 0
KHA2 191845Z 20015KT 23/01 A2988 RMK A01 T02340007  RH  022%=      5-min Rain = 0
KHA2 191846Z 20017KT 24/01 A2988 RMK A01 T02380008  RH  022%=      5-min Rain = 0
KHA2 191847Z 20017KT 24/00 A2988 RMK A01 T02370002  RH  021%=      5-min Rain = 0
KHA2 191848Z 19019KT 24/00 A2988 RMK A01 T02350003  RH  022%=      5-min Rain = 0
KHA2 191849Z 19016KT 23/00 A2988 RMK A01 T02340002  RH  022%=      5-min Rain = 0
KHA2 191850Z 19019KT 23/00 A2988 RMK A01 T02340002  RH  022%=      5-min Rain = 0
KHA2 191851Z 19019G25KT 23/00 A2988 RMK A01 T02340001  RH  021%=      5-min Rain = 0
KHA2 191852Z 19020KT 23/00 A2988 RMK A01 T02340002  RH  022%=      5-min Rain = 0
KHA2 191853Z 19021KT 24/00 A2988 RMK A01 T02350000  RH  021%=      5-min Rain = 0
KHA2 191854Z 19017KT 24/00 A2988 RMK A01 T023500-0  RH  021%=      5-min Rain = 0
KHA2 191855Z 19021G27KT 24/00 A2987 RMK A01 T02360000  RH  021%=      5-min Rain = 0
KHA2 191856Z 20023G28KT 24/M00 A2987 RMK A01 T02371002  RH  021%=      5-min Rain = 0
KHA2 191857Z 21020KT 24/M00 A2987 RMK A01 T02371001  RH  021%=      5-min Rain = 0
KHA2 191858Z 20022G27KT 24/00 A2987 RMK A01 T023700-0  RH  021%=      5-min Rain = 0
KHA2 191859Z 21023KT 24/M00 A2987 RMK A01 T02371002  RH  021%=      5-min Rain = 0
KHA2 191900Z 21018G23KT 24/M00 A2987 RMK A01 T02361003  RH  021%=      5-min Rain = 0
KHA2 191901Z 19018KT 24/00 A2987 RMK A01 T02370001  RH  021%=      5-min Rain = 0
KHA2 191902Z 20022KT 24/M00 A2987 RMK A01 T02371001  RH  021%=      5-min Rain = 0
KHA2 191903Z 20020KT 24/M00 A2987 RMK A01 T02361001  RH  021%=      5-min Rain = 0
KHA2 191904Z 21018G23KT 24/00 A2987 RMK A01 T02380002  RH  021%=      5-min Rain = 0
KHA2 191905Z 21017G22KT 24/00 A2987 RMK A01 T02390002  RH  021%=      5-min Rain = 0
KHA2 191906Z 21016KT 24/00 A2987 RMK A01 T02420004  RH  021%=      5-min Rain = 0
KHA2 191907Z 21017KT 24/00 A2987 RMK A01 T02430002  RH  020%=      5-min Rain = 0
KHA2 191908Z 21018KT 24/00 A2987 RMK A01 T024200-0  RH  020%=      5-min Rain = 0
KHA2 191909Z 20019G27KT 24/00 A2987 RMK A01 T02410001  RH  021%=      5-min Rain = 0
KHA2 191910Z 21020G25KT 24/00 A2987 RMK A01 T02430003  RH  021%=      5-min Rain = 0
KHA2 191911Z 21020KT 24/00 A2987 RMK A01 T024200-0  RH  020%=      5-min Rain = 0
KHA2 191912Z 20020KT 24/00 A2987 RMK A01 T02410001  RH  021%=      5-min Rain = 0
KHA2 191913Z 21019KT 24/M00 A2987 RMK A01 T02401001  RH  020%=      5-min Rain = 0
KHA2 191914Z 21018KT 24/M00 A2987 RMK A01 T02381001  RH  021%=      5-min Rain = 0
KHA2 191915Z 21020KT 24/M00 A2987 RMK A01 T02381002  RH  021%=      5-min Rain = 0
KHA2 191916Z 20017KT 24/M00 A2987 RMK A01 T02381001  RH  021%=      5-min Rain = 0
KHA2 191917Z 20019KT 24/00 A2987 RMK A01 T02400002  RH  021%=      5-min Rain = 0
KHA2 191918Z 21020KT 24/00 A2987 RMK A01 T024000-0  RH  020%=      5-min Rain = 0
KHA2 191919Z 21019KT 24/M00 A2987 RMK A01 T02401001  RH  020%=      5-min Rain = 0
KHA2 191920Z 21021G26KT 24/M00 A2987 RMK A01 T02401001  RH  020%=      5-min Rain = 0
KHA2 191921Z 21022KT 24/M00 A2987 RMK A01 T02391001  RH  021%=      5-min Rain = 0
KHA2 191922Z 20019KT 24/M00 A2987 RMK A01 T02371001  RH  021%=      5-min Rain = 0
KHA2 191923Z 20017G22KT 24/00 A2987 RMK A01 T02370001  RH  021%=      5-min Rain = 0
KHA2 191924Z 21017KT 24/00 A2987 RMK A01 T02380002  RH  021%=      5-min Rain = 0
KHA2 191925Z 20018G24KT 24/00 A2986 RMK A01 T02390001  RH  021%=      5-min Rain = 0
KHA2 191926Z 20019G26KT 24/00 A2986 RMK A01 T02390000  RH  021%=      5-min Rain = 0
KHA2 191927Z 20021KT 24/M00 A2986 RMK A01 T02371002  RH  021%=      5-min Rain = 0
KHA2 191928Z 19017KT 23/M00 A2986 RMK A01 T02341002  RH  021%=      5-min Rain = 0
KHA2 191929Z 21016G21KT 23/00 A2986 RMK A01 T02330000  RH  021%=      5-min Rain = 0
KHA2 191930Z 21019KT 24/00 A2986 RMK A01 T02350001  RH  021%=      5-min Rain = 0
KHA2 191931Z 20020KT 24/00 A2986 RMK A01 T02360000  RH  021%=      5-min Rain = 0
KHA2 191932Z 20018KT 24/00 A2986 RMK A01 T02360001  RH  021%=      5-min Rain = 0
KHA2 191933Z 20019KT 24/00 A2986 RMK A01 T02360002  RH  021%=      5-min Rain = 0
KHA2 191934Z 21019KT 24/00 A2986 RMK A01 T02370000  RH  021%=      5-min Rain = 0
KHA2 191935Z 21019KT 24/M00 A2986 RMK A01 T02371001  RH  021%=      5-min Rain = 0
KHA2 191936Z 21023KT 24/00 A2986 RMK A01 T02400002  RH  021%=      5-min Rain = 0
KHA2 191937Z 21020KT 24/M00 A2986 RMK A01 T02401001  RH  020%=      5-min Rain = 0
KHA2 191938Z 20019KT 24/00 A2986 RMK A01 T024100-0  RH  020%=      5-min Rain = 0
KHA2 191939Z 20018KT 24/00 A2986 RMK A01 T02410000  RH  020%=      5-min Rain = 0
KHA2 191940Z 20017KT 24/00 A2985 RMK A01 T02420003  RH  021%=      5-min Rain = 0
KHA2 191941Z 20020KT 24/00 A2985 RMK A01 T02430003  RH  020%=      5-min Rain = 0
KHA2 191942Z 22019KT 24/00 A2985 RMK A01 T02440001  RH  020%=      5-min Rain = 0
KHA2 191943Z 21018KT 24/00 A2986 RMK A01 T02440002  RH  020%=      5-min Rain = 0
KHA2 191944Z 20019G25KT 25/00 A2985 RMK A01 T02450001  RH  020%=      5-min Rain = 0
KHA2 191945Z 20023G28KT 25/00 A2985 RMK A01 T02450002  RH  020%=      5-min Rain = 0
KHA2 191946Z 21022KT 24/00 A2985 RMK A01 T024300-0  RH  020%=      5-min Rain = 0
KHA2 191947Z 21021KT 24/M00 A2985 RMK A01 T02421001  RH  020%=      5-min Rain = 0
KHA2 191948Z 21020G25KT 24/00 A2985 RMK A01 T02410000  RH  020%=      5-min Rain = 0
KHA2 191949Z 21017KT 24/M00 A2985 RMK A01 T02411001  RH  020%=      5-min Rain = 0
KHA2 191950Z 20022G27KT 24/00 A2985 RMK A01 T024000-0  RH  021%=      5-min Rain = 0
KHA2 191951Z 20022KT 24/00 A2985 RMK A01 T024000-0  RH  020%=      5-min Rain = 0
KHA2 191952Z 20021KT 24/00 A2985 RMK A01 T024000-0  RH  020%=      5-min Rain = 0
KHA2 191953Z 20019KT 24/M00 A2985 RMK A01 T02381002  RH  020%=      5-min Rain = 0
KHA2 191954Z 20019KT 24/M00 A2985 RMK A01 T02351003  RH  021%=      5-min Rain = 0
KHA2 191955Z 21017KT 23/M00 A2985 RMK A01 T02321004  RH  021%=      5-min Rain = 0
KHA2 191956Z 21018G23KT 23/M00 A2985 RMK A01 T02311002  RH  021%=      5-min Rain = 0
KHA2 191957Z 21018KT 23/M00 A2984 RMK A01 T02321001  RH  021%=      5-min Rain = 0
KHA2 191958Z 22017KT 23/M00 A2985 RMK A01 T02331002  RH  021%=      5-min Rain = 0
KHA2 191959Z 20015KT 23/M00 A2985 RMK A01 T02331001  RH  021%=      5-min Rain = 0
KHA2 192000Z 19018KT 23/00 A2984 RMK A01 T02340001  RH  021%=      5-min Rain = 0
KHA2 192001Z 20019KT 23/M00 A2984 RMK A01 T02341001  RH  021%=      5-min Rain = 0
KHA2 192002Z 20018KT 23/M00 A2984 RMK A01 T02341001  RH  021%=      5-min Rain = 0
KHA2 192003Z 21019KT 24/00 A2984 RMK A01 T02360000  RH  021%=      5-min Rain = 0
KHA2 192004Z 21020KT 24/M00 A2984 RMK A01 T02371002  RH  021%=      5-min Rain = 0
KHA2 192005Z 21020KT 24/00 A2984 RMK A01 T023700-0  RH  021%=      5-min Rain = 0
KHA2 192006Z 21021KT 24/00 A2984 RMK A01 T023800-0  RH  021%=      5-min Rain = 0
KHA2 192007Z 20023KT 24/00 A2984 RMK A01 T023800-0  RH  021%=      5-min Rain = 0
KHA2 192008Z 19021KT 24/M00 A2984 RMK A01 T02371002  RH  021%=      5-min Rain = 0
KHA2 192009Z 20021KT 24/M00 A2984 RMK A01 T02361002  RH  021%=      5-min Rain = 0
KHA2 192010Z 20017KT 24/M00 A2984 RMK A01 T02361002  RH  021%=      5-min Rain = 0
KHA2 192011Z 21017KT 24/00 A2984 RMK A01 T023500-0  RH  021%=      5-min Rain = 0
KHA2 192012Z 20019G25KT 24/00 A2984 RMK A01 T02350000  RH  021%=      5-min Rain = 0
KHA2 192013Z 20020G26KT 24/00 A2984 RMK A01 T02350002  RH  021%=      5-min Rain = 0
KHA2 192014Z 21018KT 24/00 A2984 RMK A01 T02360002  RH  021%=      5-min Rain = 0
KHA2 192015Z 21019KT 24/00 A2984 RMK A01 T02370002  RH  021%=      5-min Rain = 0
KHA2 192016Z 21020KT 24/00 A2984 RMK A01 T02390002  RH  021%=      5-min Rain = 0
KHA2 192017Z 21018KT 24/00 A2984 RMK A01 T02390000  RH  021%=      5-min Rain = 0
KHA2 192018Z 20019KT 24/00 A2984 RMK A01 T02400001  RH  021%=      5-min Rain = 0
KHA2 192019Z 20020KT 24/00 A2983 RMK A01 T02410001  RH  020%=      5-min Rain = 0
KHA2 192020Z 20021G26KT 24/00 A2983 RMK A01 T02420002  RH  021%=      5-min Rain = 0
KHA2 192021Z 20018KT 24/M00 A2983 RMK A01 T02421001  RH  020%=      5-min Rain = 0
KHA2 192022Z 21017KT 24/00 A2983 RMK A01 T024100-0  RH  020%=      5-min Rain = 0
KHA2 192023Z 21018KT 24/00 A2983 RMK A01 T02410002  RH  021%=      5-min Rain = 0
KHA2 192024Z 20022G27KT 24/00 A2983 RMK A01 T024200-0  RH  020%=      5-min Rain = 0
KHA2 192025Z 20022KT 24/M00 A2983 RMK A01 T02421002  RH  020%=      5-min Rain = 0
KHA2 192026Z 20022KT 24/M00 A2983 RMK A01 T02411003  RH  020%=      5-min Rain = 0
KHA2 192027Z 20022KT 24/M00 A2983 RMK A01 T02401002  RH  020%=      5-min Rain = 0
KHA2 192028Z 21020KT 24/M00 A2983 RMK A01 T02411002  RH  020%=      5-min Rain = 0
KHA2 192029Z 20017KT 24/M00 A2983 RMK A01 T02411002  RH  020%=      5-min Rain = 0
KHA2 192030Z 21021G27KT 24/M00 A2983 RMK A01 T02421001  RH  020%=      5-min Rain = 0
KHA2 192031Z 21019G24KT 24/M00 A2983 RMK A01 T02431001  RH  020%=      5-min Rain = 0
KHA2 192032Z 21021G28KT 24/00 A2983 RMK A01 T024400-0  RH  020%=      5-min Rain = 0
KHA2 192033Z 21020G25KT 24/M00 A2983 RMK A01 T02441003  RH  020%=      5-min Rain = 0
KHA2 192034Z 21019KT 24/M00 A2983 RMK A01 T02421003  RH  020%=      5-min Rain = 0
KHA2 192035Z 21020KT 24/M00 A2983 RMK A01 T02421003  RH  020%=      5-min Rain = 0
KHA2 192036Z 21021KT 24/M00 A2983 RMK A01 T02421004  RH  020%=      5-min Rain = 0
KHA2 192037Z 20016KT 24/M00 A2983 RMK A01 T02411002  RH  020%=      5-min Rain = 0
KHA2 192038Z 19020KT 24/00 A2983 RMK A01 T024200-0  RH  020%=      5-min Rain = 0
KHA2 192039Z 20021KT 24/M00 A2983 RMK A01 T02431001  RH  020%=      5-min Rain = 0
KHA2 192040Z 20024KT 24/M00 A2983 RMK A01 T02431002  RH  020%=      5-min Rain = 0
KHA2 192041Z 20021G28KT 24/M01 A2983 RMK A01 T02411005  RH  020%=      5-min Rain = 0
KHA2 192042Z 20019KT 24/M01 A2983 RMK A01 T02401005  RH  020%=      5-min Rain = 0
KHA2 192043Z 21018KT 24/M00 A2983 RMK A01 T02401003  RH  020%=      5-min Rain = 0
KHA2 192044Z 20016KT 24/00 A2983 RMK A01 T024100-0  RH  020%=      5-min Rain = 0
KHA2 192045Z 20020KT 24/M00 A2982 RMK A01 T02431001  RH  020%=      5-min Rain = 0
KHA2 192046Z 20021KT 24/M00 A2982 RMK A01 T02431001  RH  020%=      5-min Rain = 0
KHA2 192047Z 20018G24KT 24/M00 A2982 RMK A01 T02431002  RH  020%=      5-min Rain = 0
KHA2 192048Z 20021KT 24/M00 A2982 RMK A01 T02421002  RH  020%=      5-min Rain = 0
KHA2 192049Z 21018G23KT 24/M00 A2982 RMK A01 T02411003  RH  020%=      5-min Rain = 0
KHA2 192050Z 20021KT 24/M00 A2982 RMK A01 T02411001  RH  020%=      5-min Rain = 0
KHA2 192051Z 20021KT 24/M00 A2982 RMK A01 T02411001  RH  020%=      5-min Rain = 0
KHA2 192052Z 20019KT 24/M00 A2982 RMK A01 T02431003  RH  020%=      5-min Rain = 0
KHA2 192053Z 21015KT 24/M00 A2982 RMK A01 T02431001  RH  020%=      5-min Rain = 0
KHA2 192054Z 21014KT 24/00 A2982 RMK A01 T02440000  RH  020%=      5-min Rain = 0
KHA2 192055Z 21018KT 25/00 A2982 RMK A01 T02460000  RH  020%=      5-min Rain = 0
KHA2 192056Z 20017G22KT 25/00 A2982 RMK A01 T02470001  RH  020%=      5-min Rain = 0
KHA2 192057Z 20019KT 25/00 A2982 RMK A01 T02470000  RH  020%=      5-min Rain = 0
KHA2 192058Z 19018KT 25/M00 A2982 RMK A01 T02461002  RH  019%=      5-min Rain = 0
KHA2 192059Z 19019G24KT 25/M00 A2982 RMK A01 T02451003  RH  020%=      5-min Rain = 0
KHA2 192100Z 20023KT 24/M00 A2982 RMK A01 T02441004  RH  020%=      5-min Rain = 0
KHA2 192101Z 20018KT 24/M01 A2982 RMK A01 T02421005  RH  020%=      5-min Rain = 0
KHA2 192102Z 21018G23KT 24/M00 A2982 RMK A01 T02421002  RH  020%=      5-min Rain = 0
KHA2 192103Z 20018KT 24/00 A2982 RMK A01 T024300-0  RH  020%=      5-min Rain = 0
KHA2 192104Z 20023KT 24/M00 A2982 RMK A01 T02431003  RH  020%=      5-min Rain = 0
KHA2 192105Z 20024KT 24/M01 A2982 RMK A01 T02411005  RH  020%=      5-min Rain = 0
KHA2 192106Z 20020G25KT 24/M00 A2982 RMK A01 T02401004  RH  020%=      5-min Rain = 0
KHA2 192107Z 20022KT 24/M00 A2982 RMK A01 T02401002  RH  020%=      5-min Rain = 0
KHA2 192108Z 20018KT 24/M00 A2982 RMK A01 T02401004  RH  020%=      5-min Rain = 0
KHA2 192109Z 21017KT 24/00 A2982 RMK A01 T024000-0  RH  020%=      5-min Rain = 0
KHA2 192110Z 21020KT 24/M00 A2982 RMK A01 T02411004  RH  020%=      5-min Rain = 0
KHA2 192111Z 21021KT 24/M01 A2982 RMK A01 T02391007  RH  020%=      5-min Rain = 0
KHA2 192112Z 20020KT 24/M01 A2982 RMK A01 T02381005  RH  020%=      5-min Rain = 0
KHA2 192113Z 20018KT 24/M01 A2982 RMK A01 T02371006  RH  020%=      5-min Rain = 0
KHA2 192114Z 20017G24KT 24/M00 A2982 RMK A01 T02371003  RH  020%=      5-min Rain = 0
KHA2 192115Z 20020KT 24/M00 A2982 RMK A01 T02381004  RH  020%=      5-min Rain = 0
KHA2 192116Z 21019KT 24/M00 A2982 RMK A01 T02391002  RH  020%=      5-min Rain = 0
KHA2 192117Z 21018KT 24/M00 A2982 RMK A01 T02391004  RH  020%=      5-min Rain = 0
KHA2 192118Z 20018KT 24/M00 A2982 RMK A01 T02391002  RH  020%=      5-min Rain = 0
KHA2 192119Z 20017KT 24/M00 A2982 RMK A01 T02381002  RH  020%=      5-min Rain = 0
KHA2 192120Z 21019KT 24/M00 A2981 RMK A01 T02381002  RH  020%=      5-min Rain = 0
KHA2 192121Z 20020KT 24/M00 A2981 RMK A01 T02381001  RH  021%=      5-min Rain = 0
KHA2 192122Z 20020KT 24/M00 A2981 RMK A01 T02381001  RH  021%=      5-min Rain = 0
KHA2 192123Z 20018KT 24/00 A2981 RMK A01 T02380000  RH  021%=      5-min Rain = 0
KHA2 192124Z 20018G25KT 24/00 A2981 RMK A01 T02390003  RH  021%=      5-min Rain = 0
KHA2 192125Z 21021KT 24/M00 A2981 RMK A01 T02391001  RH  020%=      5-min Rain = 0
KHA2 192126Z 21021KT 24/M00 A2981 RMK A01 T02381003  RH  020%=      5-min Rain = 0
KHA2 192127Z 21021KT 24/M00 A2981 RMK A01 T02371004  RH  020%=      5-min Rain = 0
KHA2 192128Z 20019G24KT 24/M01 A2981 RMK A01 T02351005  RH  020%=      5-min Rain = 0
KHA2 192129Z 20018KT 23/M00 A2981 RMK A01 T02341004  RH  021%=      5-min Rain = 0
KHA2 192130Z 21017G24KT 23/M00 A2981 RMK A01 T02331002  RH  021%=      5-min Rain = 0
KHA2 192131Z 19015G20KT 23/M00 A2981 RMK A01 T02331001  RH  021%=      5-min Rain = 0
KHA2 192132Z 19017KT 23/M00 A2981 RMK A01 T02341001  RH  021%=      5-min Rain = 0
KHA2 192133Z 19018KT 23/M00 A2981 RMK A01 T02341002  RH  021%=      5-min Rain = 0
KHA2 192134Z 20018KT 23/M01 A2981 RMK A01 T02341006  RH  020%=      5-min Rain = 0
KHA2 192135Z 20015G20KT 23/M00 A2981 RMK A01 T02341003  RH  021%=      5-min Rain = 0
KHA2 192136Z 20014KT 24/M00 A2981 RMK A01 T02351002  RH  021%=      5-min Rain = 0
KHA2 192137Z 20016KT 24/M00 A2981 RMK A01 T02361001  RH  021%=      5-min Rain = 0
KHA2 192138Z 21016KT 24/M00 A2981 RMK A01 T02361003  RH  021%=      5-min Rain = 0
KHA2 192139Z 20014G20KT 24/M00 A2981 RMK A01 T02361001  RH  021%=      5-min Rain = 0
KHA2 192140Z 21017KT 24/M00 A2981 RMK A01 T02361002  RH  021%=      5-min Rain = 0
KHA2 192141Z 20014KT 24/M00 A2981 RMK A01 T02361001  RH  021%=      5-min Rain = 0
KHA2 192142Z 20014KT 24/00 A2981 RMK A01 T02360002  RH  021%=      5-min Rain = 0
KHA2 192143Z 21016KT 24/00 A2981 RMK A01 T02370001  RH  021%=      5-min Rain = 0
KHA2 192144Z 21015KT 24/M00 A2981 RMK A01 T02381003  RH  020%=      5-min Rain = 0
KHA2 192145Z 21018KT 24/M01 A2981 RMK A01 T02351005  RH  020%=      5-min Rain = 0
KHA2 192146Z 20017KT 23/M01 A2981 RMK A01 T02341006  RH  020%=      5-min Rain = 0
KHA2 192147Z 21020KT 23/M00 A2981 RMK A01 T02341004  RH  021%=      5-min Rain = 0
KHA2 192148Z 20018KT 23/M01 A2981 RMK A01 T02341006  RH  020%=      5-min Rain = 0
KHA2 192149Z 20018KT 23/M01 A2981 RMK A01 T02341005  RH  020%=      5-min Rain = 0
KHA2 192150Z 20017G23KT 23/M00 A2981 RMK A01 T02341003  RH  021%=      5-min Rain = 0
KHA2 192151Z 20020KT 24/M00 A2981 RMK A01 T02351004  RH  020%=      5-min Rain = 0
KHA2 192152Z 20020KT 24/M01 A2981 RMK A01 T02351005  RH  020%=      5-min Rain = 0
KHA2 192153Z 20019KT 24/M01 A2981 RMK A01 T02351006  RH  020%=      5-min Rain = 0
KHA2 192154Z 19016KT 24/M01 A2981 RMK A01 T02351006  RH  020%=      5-min Rain = 0
KHA2 192155Z 19018KT 24/M01 A2981 RMK A01 T02361006  RH  020%=      5-min Rain = 0
KHA2 192156Z 20018KT 24/M01 A2981 RMK A01 T02361006  RH  020%=      5-min Rain = 0
KHA2 192157Z 20018KT 24/M01 A2981 RMK A01 T02361005  RH  020%=      5-min Rain = 0
KHA2 192158Z 19015KT 24/M00 A2981 RMK A01 T02361002  RH  021%=      5-min Rain = 0
KHA2 192159Z 19016KT 24/M00 A2981 RMK A01 T02361001  RH  021%=      5-min Rain = 0
KHA2 192200Z 20016KT 24/M00 A2981 RMK A01 T02361003  RH  021%=      5-min Rain = 0
KHA2 192201Z 20016KT 24/M00 A2981 RMK A01 T02351001  RH  021%=      5-min Rain = 0
KHA2 192202Z 20017KT 24/M00 A2981 RMK A01 T02351002  RH  021%=      5-min Rain = 0
KHA2 192203Z 20014KT 24/M00 A2981 RMK A01 T02351001  RH  021%=      5-min Rain = 0
KHA2 192204Z 19017KT 24/00 A2981 RMK A01 T023500-0  RH  021%=      5-min Rain = 0
KHA2 192205Z 19016KT 24/M00 A2981 RMK A01 T02351001  RH  021%=      5-min Rain = 0
KHA2 192206Z 19018KT 24/M00 A2981 RMK A01 T02351003  RH  021%=      5-min Rain = 0
KHA2 192207Z 19015KT 24/M00 A2981 RMK A01 T02361002  RH  021%=      5-min Rain = 0
KHA2 192208Z 20016KT 24/M00 A2981 RMK A01 T02361001  RH  021%=      5-min Rain = 0
KHA2 192209Z 19015KT 24/M00 A2981 RMK A01 T02361002  RH  021%=      5-min Rain = 0
KHA2 192210Z 19017KT 24/M00 A2981 RMK A01 T02361003  RH  021%=      5-min Rain = 0
KHA2 192211Z 19015KT 24/M00 A2981 RMK A01 T02361003  RH  021%=      5-min Rain = 0
KHA2 192212Z 19015KT 24/M00 A2981 RMK A01 T02361002  RH  021%=      5-min Rain = 0
KHA2 192213Z 19014KT 24/M00 A2981 RMK A01 T02361001  RH  021%=      5-min Rain = 0
KHA2 192214Z 19015KT 24/M00 A2981 RMK A01 T02361003  RH  021%=      5-min Rain = 0
KHA2 192215Z 19016KT 24/M00 A2981 RMK A01 T02351004  RH  021%=      5-min Rain = 0
KHA2 192216Z 19015KT 24/M00 A2981 RMK A01 T02351004  RH  021%=      5-min Rain = 0
KHA2 192217Z 19013KT 24/M00 A2981 RMK A01 T02351003  RH  021%=      5-min Rain = 0
KHA2 192218Z 19014KT 24/M00 A2981 RMK A01 T02351003  RH  021%=      5-min Rain = 0
KHA2 192219Z 19016KT 24/M00 A2981 RMK A01 T02351003  RH  021%=      5-min Rain = 0
KHA2 192220Z 20014KT 24/M00 A2981 RMK A01 T02351003  RH  021%=      5-min Rain = 0
KHA2 192221Z 20012KT 24/M00 A2981 RMK A01 T02351002  RH  021%=      5-min Rain = 0
KHA2 192222Z 20012KT 24/00 A2981 RMK A01 T023500-0  RH  021%=      5-min Rain = 0
KHA2 192223Z 20013KT 24/00 A2981 RMK A01 T023600-0  RH  021%=      5-min Rain = 0
KHA2 192224Z 20011KT 24/00 A2981 RMK A01 T023600-0  RH  021%=      5-min Rain = 0
KHA2 192225Z 20012KT 24/M00 A2981 RMK A01 T02361001  RH  021%=      5-min Rain = 0
KHA2 192226Z 20011KT 24/M00 A2981 RMK A01 T02361001  RH  021%=      5-min Rain = 0
KHA2 192227Z 20011KT 24/00 A2981 RMK A01 T02360000  RH  021%=      5-min Rain = 0
KHA2 192228Z 20013KT 24/M00 A2981 RMK A01 T02351001  RH  021%=      5-min Rain = 0
KHA2 192229Z 20014KT 24/M00 A2981 RMK A01 T02351003  RH  021%=      5-min Rain = 0
KHA2 192230Z 20018G23KT 24/M00 A2981 RMK A01 T02351004  RH  021%=      5-min Rain = 0
KHA2 192231Z 20018KT 23/M01 A2981 RMK A01 T02341005  RH  020%=      5-min Rain = 0
KHA2 192232Z 20017KT 23/M01 A2981 RMK A01 T02341007  RH  020%=      5-min Rain = 0
KHA2 192233Z 19016KT 23/M01 A2981 RMK A01 T02331005  RH  021%=      5-min Rain = 0
KHA2 192234Z 19014KT 23/M01 A2981 RMK A01 T02331005  RH  021%=      5-min Rain = 0
KHA2 192235Z 20015KT 23/M01 A2981 RMK A01 T02321005  RH  021%=      5-min Rain = 0
KHA2 192236Z 20015KT 23/M01 A2981 RMK A01 T02321005  RH  021%=      5-min Rain = 0
KHA2 192237Z 19012KT 23/M01 A2981 RMK A01 T02311005  RH  021%=      5-min Rain = 0
KHA2 192238Z 19013KT 23/M00 A2981 RMK A01 T02311003  RH  021%=      5-min Rain = 0
KHA2 192239Z 19014KT 23/M00 A2981 RMK A01 T02301004  RH  021%=      5-min Rain = 0
KHA2 192240Z 19012KT 23/M00 A2981 RMK A01 T02291003  RH  021%=      5-min Rain = 0
KHA2 192241Z 19012KT 23/M00 A2981 RMK A01 T02281002  RH  022%=      5-min Rain = 0
KHA2 192242Z 19015KT 23/M00 A2981 RMK A01 T02271003  RH  022%=      5-min Rain = 0
KHA2 192243Z 20015KT 23/M00 A298 RMK A01 T02271004  RH  022%=      5-min Rain = 0
KHA2 192244Z 19015KT 23/M00 A298 RMK A01 T02271004  RH  021%=      5-min Rain = 0
KHA2 192245Z 19014KT 23/M00 A298 RMK A01 T02271004  RH  022%=      5-min Rain = 0
KHA2 192246Z 19015KT 23/M00 A298 RMK A01 T02261004  RH  022%=      5-min Rain = 0
KHA2 192247Z 19015KT 23/M01 A298 RMK A01 T02251005  RH  022%=      5-min Rain = 0
KHA2 192248Z 20015KT 22/M01 A298 RMK A01 T02231005  RH  022%=      5-min Rain = 0
KHA2 192249Z 19015KT 22/M01 A298 RMK A01 T02221005  RH  022%=      5-min Rain = 0
KHA2 192250Z 19016KT 22/M01 A298 RMK A01 T02211005  RH  022%=      5-min Rain = 0
KHA2 192251Z 19014KT 22/M01 A298 RMK A01 T02201005  RH  022%=      5-min Rain = 0
KHA2 192252Z 19014KT 22/M01 A298 RMK A01 T02201005  RH  022%=      5-min Rain = 0
KHA2 192253Z 19013KT 22/M01 A298 RMK A01 T02191006  RH  022%=      5-min Rain = 0
KHA2 192254Z 19014KT 22/M01 A298 RMK A01 T02191006  RH  022%=      5-min Rain = 0
KHA2 192255Z 19014KT 22/M01 A298 RMK A01 T02181006  RH  022%=      5-min Rain = 0
KHA2 192256Z 19013KT 22/M01 A298 RMK A01 T02181006  RH  022%=      5-min Rain = 0
KHA2 192257Z 19013KT 22/M01 A298 RMK A01 T02181006  RH  022%=      5-min Rain = 0
KHA2 192258Z 19014KT 22/M01 A298 RMK A01 T02171006  RH  022%=      5-min Rain = 0
KHA2 192259Z 19013KT 22/M01 A298 RMK A01 T02181007  RH  022%=      5-min Rain = 0
KHA2 192300Z 19013KT 22/M01 A298 RMK A01 T02171006  RH  022%=      5-min Rain = 0
KHA2 192301Z 19012KT 22/M01 A298 RMK A01 T02171006  RH  023%=      5-min Rain = 0
KHA2 192302Z 19012KT 22/M01 A298 RMK A01 T02151006  RH  023%=      5-min Rain = 0
KHA2 192303Z 19012KT 22/M01 A298 RMK A01 T02151006  RH  023%=      5-min Rain = 0
KHA2 192304Z 19011KT 21/M01 A298 RMK A01 T02141006  RH  023%=      5-min Rain = 0
KHA2 192305Z 19012KT 21/M01 A298 RMK A01 T02121006  RH  023%=      5-min Rain = 0
KHA2 192306Z 18012KT 21/M01 A298 RMK A01 T02111006  RH  023%=      5-min Rain = 0
KHA2 192307Z 19012KT 21/M01 A298 RMK A01 T02091006  RH  024%=      5-min Rain = 0
KHA2 192308Z 19012KT 21/M01 A298 RMK A01 T02081006  RH  024%=      5-min Rain = 0
KHA2 192309Z 19012KT 21/M01 A298 RMK A01 T02071007  RH  024%=      5-min Rain = 0
KHA2 192310Z 19012KT 21/M01 A298 RMK A01 T02061007  RH  024%=      5-min Rain = 0
KHA2 192311Z 19012KT 21/M01 A298 RMK A01 T02051007  RH  024%=      5-min Rain = 0
KHA2 192312Z 18012KT 20/M01 A298 RMK A01 T02041007  RH  024%=      5-min Rain = 0
KHA2 192313Z 18011KT 20/M01 A298 RMK A01 T02031008  RH  024%=      5-min Rain = 0
KHA2 192314Z 18011KT 20/M01 A298 RMK A01 T02011008  RH  025%=      5-min Rain = 0
KHA2 192315Z 18011KT 20/M01 A298 RMK A01 T02001007  RH  025%=      5-min Rain = 0
KHA2 192316Z 18011KT 20/M01 A298 RMK A01 T01981008  RH  025%=      5-min Rain = 0
KHA2 192317Z 18011KT 20/M01 A298 RMK A01 T01961008  RH  025%=      5-min Rain = 0
KHA2 192318Z 18010KT 19/M01 A298 RMK A01 T01941007  RH  026%=      5-min Rain = 0
KHA2 192319Z 18010KT 19/M01 A298 RMK A01 T01911007  RH  026%=      5-min Rain = 0
KHA2 192320Z 18010KT 19/M01 A298 RMK A01 T01891007  RH  027%=      5-min Rain = 0
KHA2 192321Z 18010KT 19/M01 A298 RMK A01 T01871007  RH  027%=      5-min Rain = 0
KHA2 192322Z 18010KT 19/M01 A298 RMK A01 T01861006  RH  027%=      5-min Rain = 0
KHA2 192323Z 18010KT 18/M01 A298 RMK A01 T01841006  RH  028%=      5-min Rain = 0
KHA2 192324Z 18010KT 18/M01 A298 RMK A01 T01831006  RH  028%=      5-min Rain = 0
KHA2 192325Z 18010KT 18/M01 A298 RMK A01 T01821005  RH  028%=      5-min Rain = 0
KHA2 192326Z 18010KT 18/M00 A298 RMK A01 T01811004  RH  029%=      5-min Rain = 0
KHA2 192327Z 18010KT 18/M00 A298 RMK A01 T01791004  RH  029%=      5-min Rain = 0
KHA2 192328Z 18010KT 18/M01 A298 RMK A01 T01771005  RH  029%=      5-min Rain = 0
KHA2 192329Z 18010KT 18/M01 A298 RMK A01 T01761005  RH  029%=      5-min Rain = 0
KHA2 192330Z 17010KT 18/M01 A298 RMK A01 T01751005  RH  030%=      5-min Rain = 0
KHA2 192331Z 17010KT 17/M01 A298 RMK A01 T01731006  RH  030%=      5-min Rain = 0
KHA2 192332Z 17010KT 17/M01 A298 RMK A01 T01721006  RH  030%=      5-min Rain = 0
KHA2 192333Z 18010KT 17/M01 A298 RMK A01 T01711006  RH  030%=      5-min Rain = 0
KHA2 192334Z 17010KT 17/M01 A298 RMK A01 T01691006  RH  030%=      5-min Rain = 0
KHA2 192335Z 18010KT 17/M01 A298 RMK A01 T01681007  RH  030%=      5-min Rain = 0
KHA2 192336Z 17010KT 17/M01 A298 RMK A01 T01671007  RH  031%=      5-min Rain = 0
KHA2 192337Z 18010KT 17/M01 A298 RMK A01 T01661007  RH  031%=      5-min Rain = 0
KHA2 192338Z 18010KT 16/M01 A298 RMK A01 T01641007  RH  031%=      5-min Rain = 0
KHA2 192339Z 18010KT 16/M01 A298 RMK A01 T01631006  RH  032%=      5-min Rain = 0
KHA2 192340Z 18010KT 16/M01 A298 RMK A01 T01621006  RH  032%=      5-min Rain = 0
KHA2 192341Z 17010KT 16/M01 A298 RMK A01 T01611006  RH  032%=      5-min Rain = 0
KHA2 192342Z 17010KT 16/M01 A298 RMK A01 T01601005  RH  032%=      5-min Rain = 0
KHA2 192343Z 18010KT 16/M01 A298 RMK A01 T01591005  RH  033%=      5-min Rain = 0
KHA2 192344Z 18010KT 16/M01 A298 RMK A01 T01591005  RH  033%=      5-min Rain = 0
KHA2 192345Z 18010KT 16/M00 A298 RMK A01 T01591004  RH  033%=      5-min Rain = 0
KHA2 192346Z 18010KT 16/M00 A298 RMK A01 T01591004  RH  033%=      5-min Rain = 0
KHA2 192347Z 18011KT 16/M00 A298 RMK A01 T01591004  RH  033%=      5-min Rain = 0
KHA2 192348Z 18010KT 16/M00 A298 RMK A01 T01591004  RH  033%=      5-min Rain = 0
KHA2 192349Z 18010KT 16/M00 A298 RMK A01 T01591004  RH  033%=      5-min Rain = 0
KHA2 192350Z 18011KT 16/M00 A298 RMK A01 T01581004  RH  033%=      5-min Rain = 0
KHA2 192351Z 18011KT 16/M01 A298 RMK A01 T01571005  RH  033%=      5-min Rain = 0
KHA2 192352Z 18011KT 16/M00 A2981 RMK A01 T01581004  RH  033%=      5-min Rain = 0
KHA2 192353Z 18011KT 16/M01 A2981 RMK A01 T01581005  RH  033%=      5-min Rain = 0
KHA2 192354Z 18011KT 16/M00 A2981 RMK A01 T01591004  RH  033%=      5-min Rain = 0
KHA2 192355Z 18010KT 16/M01 A2981 RMK A01 T01581005  RH  033%=      5-min Rain = 0
KHA2 192356Z 18011KT 16/M01 A2981 RMK A01 T01581005  RH  033%=      5-min Rain = 0
KHA2 192357Z 18011KT 16/M01 A2981 RMK A01 T01581005  RH  033%=      5-min Rain = 0
KHA2 192358Z 18011KT 16/M01 A2981 RMK A01 T01581005  RH  033%=      5-min Rain = 0
KHA2 192359Z 18011KT 16/M01 A2981 RMK A01 T01581005  RH  033%=      5-min Rain = 0
KHA2 200000Z 18011KT 16/M01 A2981 RMK A01 T01581005  RH  033%=      5-min Rain = 0
KHA2 200001Z 18011KT 16/M01 A2981 RMK A01 T01591005  RH  033%=      5-min Rain = 0
KHA2 200002Z 18011KT 16/M01 A2981 RMK A01 T01591006  RH  033%=      5-min Rain = 0
KHA2 200003Z 18011KT 16/M01 A2981 RMK A01 T01581006  RH  033%=      5-min Rain = 0
KHA2 200004Z 18011KT 16/M01 A2981 RMK A01 T01581006  RH  033%=      5-min Rain = 0
KHA2 200005Z 18010KT 16/M01 A2981 RMK A01 T01571006  RH  033%=      5-min Rain = 0
KHA2 200006Z 18011KT 16/M01 A2981 RMK A01 T01561006  RH  033%=      5-min Rain = 0
KHA2 200007Z 18010KT 16/M01 A2981 RMK A01 T01551006  RH  033%=      5-min Rain = 0
KHA2 200008Z 18010KT 15/M01 A2981 RMK A01 T01541007  RH  033%=      5-min Rain = 0
KHA2 200009Z 18011KT 15/M01 A2981 RMK A01 T01541006  RH  033%=      5-min Rain = 0
KHA2 200010Z 18011KT 15/M01 A2981 RMK A01 T01541007  RH  033%=      5-min Rain = 0
KHA2 200011Z 18011KT 15/M01 A2981 RMK A01 T01541006  RH  033%=      5-min Rain = 0
KHA2 200012Z 18011KT 15/M01 A2981 RMK A01 T01531006  RH  034%=      5-min Rain = 0
KHA2 200013Z 18010KT 15/M01 A2981 RMK A01 T01531007  RH  033%=      5-min Rain = 0
KHA2 200014Z 18011KT 15/M01 A2981 RMK A01 T01541006  RH  033%=      5-min Rain = 0
KHA2 200015Z 18011KT 16/M01 A2981 RMK A01 T01551006  RH  033%=      5-min Rain = 0
KHA2 200016Z 18010KT 16/M01 A2981 RMK A01 T01551007  RH  033%=      5-min Rain = 0
KHA2 200017Z 18011KT 15/M01 A2981 RMK A01 T01541007  RH  033%=      5-min Rain = 0
KHA2 200018Z 18011KT 15/M01 A2981 RMK A01 T01541007  RH  033%=      5-min Rain = 0
KHA2 200019Z 18011KT 15/M01 A2981 RMK A01 T01541006  RH  033%=      5-min Rain = 0
KHA2 200020Z 18011KT 15/M01 A2981 RMK A01 T01541006  RH  033%=      5-min Rain = 0
KHA2 200021Z 18011KT 15/M01 A2981 RMK A01 T01541006  RH  033%=      5-min Rain = 0
KHA2 200022Z 18011KT 15/M01 A2981 RMK A01 T01541006  RH  033%=      5-min Rain = 0
KHA2 200023Z 18011KT 15/M01 A2981 RMK A01 T01541007  RH  033%=      5-min Rain = 0
KHA2 200024Z 18011KT 15/M01 A2981 RMK A01 T01541006  RH  033%=      5-min Rain = 0
KHA2 200025Z 18010KT 15/M01 A2981 RMK A01 T01531006  RH  034%=      5-min Rain = 0
KHA2 200026Z 18011KT 15/M01 A2981 RMK A01 T01531006  RH  034%=      5-min Rain = 0
KHA2 200027Z 18011KT 15/M01 A2981 RMK A01 T01521006  RH  034%=      5-min Rain = 0
KHA2 200028Z 18011KT 15/M01 A2981 RMK A01 T01521006  RH  034%=      5-min Rain = 0
KHA2 200029Z 19011KT 15/M01 A2981 RMK A01 T01511007  RH  034%=      5-min Rain = 0
KHA2 200030Z 18011KT 15/M01 A2981 RMK A01 T01501007  RH  034%=      5-min Rain = 0
KHA2 200031Z 19011KT 15/M01 A2981 RMK A01 T01501007  RH  034%=      5-min Rain = 0
KHA2 200032Z 18011KT 15/M01 A2981 RMK A01 T01491007  RH  034%=      5-min Rain = 0
KHA2 200033Z 19010KT 15/M01 A2981 RMK A01 T01491007  RH  034%=      5-min Rain = 0
KHA2 200034Z 19011KT 15/M01 A2981 RMK A01 T01491007  RH  034%=      5-min Rain = 0
KHA2 200035Z 18010KT 15/M01 A2981 RMK A01 T01491007  RH  034%=      5-min Rain = 0
KHA2 200036Z 18011KT 15/M01 A2981 RMK A01 T01501007  RH  034%=      5-min Rain = 0
KHA2 200037Z 19011KT 15/M01 A2981 RMK A01 T01511007  RH  034%=      5-min Rain = 0
KHA2 200038Z 18010KT 15/M01 A2981 RMK A01 T01521007  RH  034%=      5-min Rain = 0
KHA2 200039Z 18010KT 15/M01 A2981 RMK A01 T01521007  RH  034%=      5-min Rain = 0
KHA2 200040Z 18010KT 15/M01 A2981 RMK A01 T01521007  RH  034%=      5-min Rain = 0
KHA2 200041Z 18010KT 15/M01 A2981 RMK A01 T01511008  RH  034%=      5-min Rain = 0
KHA2 200042Z 18010KT 15/M01 A2981 RMK A01 T01511008  RH  034%=      5-min Rain = 0
KHA2 200043Z 18009KT 15/M01 A2981 RMK A01 T01501008  RH  034%=      5-min Rain = 0
KHA2 200044Z 18009KT 15/M01 A2981 RMK A01 T01491008  RH  034%=      5-min Rain = 0
KHA2 200045Z 18009KT 15/M01 A2981 RMK A01 T01481008  RH  034%=      5-min Rain = 0
KHA2 200046Z 18009KT 15/M01 A2981 RMK A01 T01461008  RH  035%=      5-min Rain = 0
KHA2 200047Z 18009KT 15/M01 A2981 RMK A01 T01461007  RH  035%=      5-min Rain = 0
KHA2 200048Z 18010KT 15/M01 A2981 RMK A01 T01451007  RH  035%=      5-min Rain = 0
KHA2 200049Z 18010KT 15/M01 A2981 RMK A01 T01451007  RH  035%=      5-min Rain = 0
KHA2 200050Z 18009KT 15/M01 A2981 RMK A01 T01451007  RH  035%=      5-min Rain = 0
KHA2 200051Z 18009KT 14/M01 A2981 RMK A01 T01441007  RH  035%=      5-min Rain = 0
KHA2 200052Z 18009KT 14/M01 A2981 RMK A01 T01421008  RH  036%=      5-min Rain = 0
KHA2 200053Z 18009KT 14/M01 A2981 RMK A01 T01411008  RH  036%=      5-min Rain = 0
KHA2 200054Z 18009KT 14/M01 A2981 RMK A01 T01401008  RH  036%=      5-min Rain = 0
KHA2 200055Z 18009KT 14/M01 A2981 RMK A01 T01391008  RH  036%=      5-min Rain = 0
KHA2 200056Z 18009KT 14/M01 A2981 RMK A01 T01391008  RH  036%=      5-min Rain = 0
KHA2 200057Z 18010KT 14/M01 A2981 RMK A01 T01381007  RH  037%=      5-min Rain = 0
KHA2 200058Z 18010KT 14/M01 A2981 RMK A01 T01381007  RH  037%=      5-min Rain = 0
KHA2 200059Z 18009KT 14/M01 A2981 RMK A01 T01381007  RH  037%=      5-min Rain = 0
KHA2 200100Z 18009KT 14/M01 A2981 RMK A01 T01371007  RH  037%=      5-min Rain = 0
KHA2 200101Z 18010KT 14/M01 A2981 RMK A01 T01371007  RH  037%=      5-min Rain = 0
KHA2 200102Z 18009KT 14/M01 A2981 RMK A01 T01371007  RH  037%=      5-min Rain = 0
KHA2 200103Z 18010KT 14/M01 A2981 RMK A01 T01371007  RH  037%=      5-min Rain = 0
KHA2 200104Z 18010KT 14/M01 A2981 RMK A01 T01371007  RH  037%=      5-min Rain = 0
KHA2 200105Z 18010KT 14/M01 A2981 RMK A01 T01371007  RH  037%=      5-min Rain = 0
KHA2 200106Z 18009KT 14/M01 A2981 RMK A01 T01361007  RH  037%=      5-min Rain = 0
KHA2 200107Z 18010KT 14/M01 A2981 RMK A01 T01361007  RH  037%=      5-min Rain = 0
KHA2 200108Z 18010KT 14/M01 A2981 RMK A01 T01361006  RH  038%=      5-min Rain = 0
KHA2 200109Z 18010KT 14/M01 A2981 RMK A01 T01361006  RH  038%=      5-min Rain = 0
KHA2 200110Z 18010KT 14/M01 A2981 RMK A01 T01351006  RH  038%=      5-min Rain = 0
KHA2 200111Z 18010KT 14/M01 A2981 RMK A01 T01351006  RH  038%=      5-min Rain = 0
KHA2 200112Z 18010KT 14/M01 A2981 RMK A01 T01361006  RH  038%=      5-min Rain = 0
KHA2 200113Z 18010KT 14/M01 A2981 RMK A01 T01361006  RH  038%=      5-min Rain = 0
KHA2 200114Z 18010KT 14/M01 A2981 RMK A01 T01361006  RH  038%=      5-min Rain = 0
KHA2 200115Z 18010KT 14/M01 A2981 RMK A01 T01361005  RH  038%=      5-min Rain = 0
KHA2 200116Z 18010KT 14/M01 A2981 RMK A01 T01361005  RH  038%=      5-min Rain = 0
KHA2 200117Z 18009KT 14/M01 A2981 RMK A01 T01361005  RH  038%=      5-min Rain = 0
KHA2 200118Z 18009KT 14/M01 A2981 RMK A01 T01361005  RH  038%=      5-min Rain = 0
KHA2 200119Z 19009KT 14/M01 A2981 RMK A01 T01361005  RH  038%=      5-min Rain = 0
KHA2 200120Z 19009KT 14/M00 A2981 RMK A01 T01361004  RH  038%=      5-min Rain = 0
KHA2 200121Z 18010KT 14/M00 A2981 RMK A01 T01361004  RH  038%=      5-min Rain = 0
KHA2 200122Z 18010KT 14/M00 A2981 RMK A01 T01361004  RH  038%=      5-min Rain = 0
KHA2 200123Z 18010KT 14/M00 A2981 RMK A01 T01361003  RH  038%=      5-min Rain = 0
KHA2 200124Z 18011KT 14/M00 A2981 RMK A01 T01361003  RH  038%=      5-min Rain = 0
KHA2 200125Z 18011KT 14/M00 A2981 RMK A01 T01371003  RH  038%=      5-min Rain = 0
KHA2 200126Z 18011KT 14/M00 A2981 RMK A01 T01371003  RH  038%=      5-min Rain = 0
KHA2 200127Z 18010KT 14/M00 A2981 RMK A01 T01371003  RH  038%=      5-min Rain = 0
KHA2 200128Z 18010KT 14/M00 A2981 RMK A01 T01371003  RH  038%=      5-min Rain = 0
KHA2 200129Z 18010KT 14/M00 A2981 RMK A01 T01371002  RH  038%=      5-min Rain = 0
KHA2 200130Z 18011KT 14/M00 A2981 RMK A01 T01371002  RH  038%=      5-min Rain = 0
KHA2 200131Z 18010KT 14/M00 A2981 RMK A01 T01361002  RH  039%=      5-min Rain = 0
KHA2 200132Z 18010KT 14/M00 A2981 RMK A01 T01361002  RH  039%=      5-min Rain = 0
KHA2 200133Z 18010KT 14/M00 A2981 RMK A01 T01351002  RH  039%=      5-min Rain = 0
KHA2 200134Z 18010KT 13/M00 A2981 RMK A01 T01341002  RH  039%=      5-min Rain = 0
KHA2 200135Z 18010KT 13/M00 A2981 RMK A01 T01331002  RH  039%=      5-min Rain = 0
KHA2 200136Z 18010KT 13/M00 A2981 RMK A01 T01321002  RH  040%=      5-min Rain = 0
KHA2 200137Z 17010KT 13/M00 A2981 RMK A01 T01311002  RH  040%=      5-min Rain = 0
KHA2 200138Z 18009KT 13/M00 A2981 RMK A01 T01291002  RH  040%=      5-min Rain = 0
KHA2 200139Z 18010KT 13/M00 A2981 RMK A01 T01281002  RH  041%=      5-min Rain = 0
KHA2 200140Z 18010KT 13/M00 A2981 RMK A01 T01271002  RH  041%=      5-min Rain = 0
KHA2 200141Z 18010KT 13/M00 A2981 RMK A01 T01271002  RH  041%=      5-min Rain = 0
KHA2 200142Z 18009KT 13/M00 A2981 RMK A01 T01261002  RH  041%=      5-min Rain = 0
KHA2 200143Z 18009KT 13/M00 A2981 RMK A01 T01261002  RH  041%=      5-min Rain = 0
KHA2 200144Z 18009KT 13/M00 A2981 RMK A01 T01251002  RH  042%=      5-min Rain = 0
KHA2 200145Z 18009KT 12/M00 A2981 RMK A01 T01241002  RH  042%=      5-min Rain = 0
KHA2 200146Z 18009KT 12/M00 A2981 RMK A01 T01241002  RH  042%=      5-min Rain = 0
KHA2 200147Z 18009KT 12/M00 A2981 RMK A01 T01231002  RH  042%=      5-min Rain = 0
KHA2 200148Z 18009KT 12/M00 A2981 RMK A01 T01221002  RH  042%=      5-min Rain = 0
KHA2 200149Z 18010KT 12/M00 A2981 RMK A01 T01221002  RH  042%=      5-min Rain = 0
KHA2 200150Z 18010KT 12/M00 A2981 RMK A01 T01211002  RH  043%=      5-min Rain = 0
KHA2 200151Z 18010KT 12/M00 A2981 RMK A01 T01201002  RH  043%=      5-min Rain = 0
KHA2 200152Z 18009KT 12/M00 A2981 RMK A01 T01201002  RH  043%=      5-min Rain = 0
KHA2 200153Z 17009KT 12/M00 A2981 RMK A01 T01201002  RH  043%=      5-min Rain = 0
KHA2 200154Z 18009KT 12/M00 A2981 RMK A01 T01201001  RH  043%=      5-min Rain = 0
KHA2 200155Z 18009KT 12/M00 A2981 RMK A01 T01191002  RH  043%=      5-min Rain = 0
KHA2 200156Z 18009KT 12/M00 A2981 RMK A01 T01181002  RH  043%=      5-min Rain = 0
KHA2 200157Z 18009KT 12/M00 A2982 RMK A01 T01171002  RH  044%=      5-min Rain = 0
KHA2 200158Z 18009KT 12/M00 A2982 RMK A01 T01151003  RH  044%=      5-min Rain = 0
KHA2 200159Z 18008KT 11/M00 A2982 RMK A01 T01141003  RH  044%=      5-min Rain = 0
KHA2 200200Z 18009KT 11/M00 A2982 RMK A01 T01131003  RH  045%=      5-min Rain = 0
KHA2 200201Z 18009KT 11/M00 A2982 RMK A01 T01121004  RH  045%=      5-min Rain = 0
KHA2 200202Z 18009KT 11/M00 A2981 RMK A01 T01121003  RH  045%=      5-min Rain = 0
KHA2 200203Z 18009KT 11/M00 A2981 RMK A01 T01121004  RH  045%=      5-min Rain = 0
KHA2 200204Z 18010KT 11/M00 A2981 RMK A01 T01121004  RH  045%=      5-min Rain = 0
KHA2 200205Z 18009KT 11/M00 A2981 RMK A01 T01121004  RH  045%=      5-min Rain = 0
KHA2 200206Z 18009KT 11/M00 A2981 RMK A01 T01121004  RH  045%=      5-min Rain = 0
KHA2 200207Z 18009KT 11/M00 A2981 RMK A01 T01131004  RH  045%=      5-min Rain = 0
KHA2 200208Z 18009KT 11/M00 A2981 RMK A01 T01121004  RH  045%=      5-min Rain = 0
KHA2 200209Z 18009KT 11/M00 A2981 RMK A01 T01121004  RH  045%=      5-min Rain = 0
KHA2 200210Z 18009KT 11/M00 A2981 RMK A01 T01121004  RH  045%=      5-min Rain = 0
KHA2 200211Z 18009KT 11/M00 A2981 RMK A01 T01121004  RH  045%=      5-min Rain = 0
KHA2 200212Z 18009KT 11/M00 A2981 RMK A01 T01111004  RH  045%=      5-min Rain = 0
KHA2 200213Z 18009KT 11/M00 A2981 RMK A01 T01101004  RH  045%=      5-min Rain = 0
KHA2 200214Z 18009KT 11/M01 A2981 RMK A01 T01091005  RH  045%=      5-min Rain = 0
KHA2 200215Z 18010KT 11/M01 A2981 RMK A01 T01091005  RH  045%=      5-min Rain = 0
KHA2 200216Z 19010KT 11/M01 A2982 RMK A01 T01081006  RH  045%=      5-min Rain = 0
KHA2 200217Z 19010KT 11/M01 A2982 RMK A01 T01081006  RH  045%=      5-min Rain = 0
KHA2 200218Z 19010KT 11/M01 A2982 RMK A01 T01081006  RH  045%=      5-min Rain = 0
KHA2 200219Z 18011KT 11/M01 A2982 RMK A01 T01091006  RH  045%=      5-min Rain = 0
KHA2 200220Z 18010KT 11/M01 A2982 RMK A01 T01091006  RH  045%=      5-min Rain = 0
KHA2 200221Z 18010KT 11/M01 A2982 RMK A01 T01101006  RH  045%=      5-min Rain = 0
KHA2 200222Z 18010KT 11/M01 A2982 RMK A01 T01101007  RH  044%=      5-min Rain = 0
KHA2 200223Z 18010KT 11/M01 A2981 RMK A01 T01101007  RH  044%=      5-min Rain = 0
KHA2 200224Z 18010KT 11/M01 A2981 RMK A01 T01101007  RH  044%=      5-min Rain = 0
KHA2 200225Z 18010KT 11/M01 A2981 RMK A01 T01091008  RH  044%=      5-min Rain = 0
KHA2 200226Z 18010KT 11/M01 A2981 RMK A01 T01091007  RH  044%=      5-min Rain = 0
KHA2 200227Z 18010KT 11/M01 A2981 RMK A01 T01091008  RH  044%=      5-min Rain = 0
KHA2 200228Z 18010KT 11/M01 A2981 RMK A01 T01091008  RH  044%=      5-min Rain = 0
KHA2 200229Z 18010KT 11/M01 A2982 RMK A01 T01081008  RH  044%=      5-min Rain = 0
KHA2 200230Z 18010KT 11/M01 A2982 RMK A01 T01071008  RH  045%=      5-min Rain = 0
KHA2 200231Z 18010KT 11/M01 A2982 RMK A01 T01071008  RH  045%=      5-min Rain = 0
KHA2 200232Z 18010KT 11/M01 A2982 RMK A01 T01061008  RH  045%=      5-min Rain = 0
KHA2 200233Z 19009KT 11/M01 A2982 RMK A01 T01051009  RH  045%=      5-min Rain = 0
KHA2 200234Z 18010KT 10/M01 A2982 RMK A01 T01041009  RH  045%=      5-min Rain = 0
KHA2 200235Z 19009KT 10/M01 A2981 RMK A01 T01041009  RH  046%=      5-min Rain = 0
KHA2 200236Z 19009KT 10/M01 A2981 RMK A01 T01031009  RH  046%=      5-min Rain = 0
KHA2 200237Z 19009KT 10/M01 A2981 RMK A01 T01031009  RH  046%=      5-min Rain = 0
KHA2 200238Z 19009KT 10/M01 A2981 RMK A01 T01021009  RH  046%=      5-min Rain = 0
KHA2 200239Z 19009KT 10/M01 A2981 RMK A01 T01011009  RH  046%=      5-min Rain = 0
KHA2 200240Z 19009KT 10/M01 A2981 RMK A01 T01001009  RH  047%=      5-min Rain = 0
KHA2 200241Z 19010KT 10/M01 A2981 RMK A01 T01001009  RH  047%=      5-min Rain = 0
KHA2 200242Z 19010KT 10/M01 A2981 RMK A01 T00991009  RH  047%=      5-min Rain = 0
KHA2 200243Z 19010KT 10/M01 A2981 RMK A01 T00991009  RH  047%=      5-min Rain = 0
KHA2 200244Z 19010KT 10/M01 A2981 RMK A01 T00991009  RH  047%=      5-min Rain = 0
KHA2 200245Z 19010KT 10/M01 A2981 RMK A01 T00991009  RH  047%=      5-min Rain = 0
KHA2 200246Z 19010KT 10/M01 A2982 RMK A01 T00991009  RH  047%=      5-min Rain = 0
KHA2 200247Z 19010KT 10/M01 A2982 RMK A01 T00991009  RH  047%=      5-min Rain = 0
KHA2 200248Z 19010KT 10/M01 A2982 RMK A01 T00991010  RH  047%=      5-min Rain = 0
KHA2 200249Z 19010KT 10/M01 A2982 RMK A01 T00991010  RH  047%=      5-min Rain = 0
KHA2 200250Z 19010KT 10/M01 A2982 RMK A01 T00991010  RH  047%=      5-min Rain = 0
KHA2 200251Z 19010KT 10/M01 A2982 RMK A01 T00991010  RH  047%=      5-min Rain = 0
KHA2 200252Z 18010KT 10/M01 A2982 RMK A01 T00991010  RH  047%=      5-min Rain = 0
KHA2 200253Z 19010KT 10/M01 A2982 RMK A01 T00991011  RH  047%=      5-min Rain = 0
KHA2 200254Z 19010KT 10/M01 A2982 RMK A01 T00991011  RH  046%=      5-min Rain = 0
KHA2 200255Z 19010KT 10/M01 A2982 RMK A01 T00981011  RH  047%=      5-min Rain = 0
KHA2 200256Z 19010KT 10/M01 A2982 RMK A01 T00981011  RH  047%=      5-min Rain = 0
KHA2 200257Z 19010KT 10/M01 A2982 RMK A01 T00981011  RH  047%=      5-min Rain = 0
KHA2 200258Z 19010KT 10/M01 A2982 RMK A01 T00981011  RH  047%=      5-min Rain = 0
KHA2 200259Z 19011KT 10/M01 A2982 RMK A01 T00981011  RH  047%=      5-min Rain = 0
KHA2 200300Z 19010KT 10/M01 A2982 RMK A01 T00981011  RH  047%=      5-min Rain = 0
KHA2 200301Z 19011KT 10/M01 A2981 RMK A01 T00971011  RH  047%=      5-min Rain = 0
KHA2 200302Z 19010KT 10/M01 A2981 RMK A01 T00971011  RH  047%=      5-min Rain = 0
KHA2 200303Z 19011KT 10/M01 A2981 RMK A01 T00971011  RH  047%=      5-min Rain = 0
KHA2 200304Z 19011KT 10/M01 A2981 RMK A01 T00971011  RH  047%=      5-min Rain = 0
KHA2 200305Z 19011KT 10/M01 A2981 RMK A01 T00971011  RH  047%=      5-min Rain = 0
KHA2 200306Z 19011KT 10/M01 A2981 RMK A01 T00971011  RH  047%=      5-min Rain = 0
KHA2 200307Z 19011KT 10/M01 A2982 RMK A01 T00971012  RH  047%=      5-min Rain = 0
KHA2 200308Z 19010KT 10/M01 A2982 RMK A01 T00961012  RH  047%=      5-min Rain = 0
KHA2 200309Z 19010KT 10/M01 A2982 RMK A01 T00961012  RH  047%=      5-min Rain = 0
KHA2 200310Z 19011KT 10/M01 A2982 RMK A01 T00961012  RH  047%=      5-min Rain = 0
KHA2 200311Z 19010KT 10/M01 A2982 RMK A01 T00951013  RH  047%=      5-min Rain = 0
KHA2 200312Z 19011KT 10/M01 A2982 RMK A01 T00961013  RH  047%=      5-min Rain = 0
KHA2 200313Z 19011KT 10/M01 A2982 RMK A01 T00961013  RH  047%=      5-min Rain = 0
KHA2 200314Z 19010KT 10/M01 A2982 RMK A01 T00961013  RH  047%=      5-min Rain = 0
KHA2 200315Z 19010KT 10/M01 A2982 RMK A01 T00961013  RH  047%=      5-min Rain = 0
KHA2 200316Z 19010KT 10/M01 A2982 RMK A01 T00951013  RH  047%=      5-min Rain = 0
KHA2 200317Z 19010KT 10/M01 A2982 RMK A01 T00951013  RH  047%=      5-min Rain = 0
KHA2 200318Z 19010KT 10/M01 A2982 RMK A01 T00951014  RH  047%=      5-min Rain = 0
KHA2 200319Z 19010KT 09/M01 A2982 RMK A01 T00941014  RH  047%=      5-min Rain = 0
KHA2 200320Z 19010KT 09/M01 A2982 RMK A01 T00941014  RH  047%=      5-min Rain = 0
KHA2 200321Z 19010KT 09/M01 A2982 RMK A01 T00931014  RH  047%=      5-min Rain = 0
KHA2 200322Z 19010KT 09/M01 A2982 RMK A01 T00931014  RH  047%=      5-min Rain = 0
KHA2 200323Z 19009KT 09/M01 A2982 RMK A01 T00921014  RH  047%=      5-min Rain = 0
KHA2 200324Z 19010KT 09/M01 A2982 RMK A01 T00921014  RH  048%=      5-min Rain = 0
KHA2 200325Z 19010KT 09/M01 A2982 RMK A01 T00921014  RH  048%=      5-min Rain = 0
KHA2 200326Z 19010KT 09/M01 A2982 RMK A01 T00921014  RH  048%=      5-min Rain = 0
KHA2 200327Z 19009KT 09/M01 A2982 RMK A01 T00931014  RH  047%=      5-min Rain = 0
KHA2 200328Z 19009KT 09/M01 A2982 RMK A01 T00931014  RH  047%=      5-min Rain = 0
KHA2 200329Z 19009KT 09/M01 A2982 RMK A01 T00941014  RH  047%=      5-min Rain = 0
KHA2 200330Z 19009KT 09/M01 A2982 RMK A01 T00941014  RH  047%=      5-min Rain = 0
KHA2 200331Z 19009KT 09/M01 A2982 RMK A01 T00941014  RH  047%=      5-min Rain = 0
KHA2 200332Z 19009KT 09/M01 A2982 RMK A01 T00941014  RH  047%=      5-min Rain = 0
KHA2 200333Z 19009KT 09/M01 A2982 RMK A01 T00931014  RH  047%=      5-min Rain = 0
KHA2 200334Z 19008KT 09/M01 A2982 RMK A01 T00921014  RH  047%=      5-min Rain = 0
KHA2 200335Z 19008KT 09/M01 A2982 RMK A01 T00911014  RH  048%=      5-min Rain = 0
KHA2 200336Z 19009KT 09/M01 A2982 RMK A01 T00901014  RH  048%=      5-min Rain = 0
KHA2 200337Z 19008KT 09/M01 A2982 RMK A01 T00891014  RH  048%=      5-min Rain = 0
KHA2 200338Z 19008KT 09/M01 A2982 RMK A01 T00881014  RH  049%=      5-min Rain = 0
KHA2 200339Z 19008KT 09/M01 A2982 RMK A01 T00871014  RH  049%=      5-min Rain = 0
KHA2 200340Z 20008KT 09/M02 A2982 RMK A01 T00861015  RH  049%=      5-min Rain = 0
KHA2 200341Z 20007KT 08/M02 A2982 RMK A01 T00841015  RH  050%=      5-min Rain = 0
KHA2 200342Z 20008KT 08/M02 A2982 RMK A01 T00831015  RH  050%=      5-min Rain = 0
KHA2 200343Z 20008KT 08/M02 A2982 RMK A01 T00821015  RH  050%=      5-min Rain = 0
KHA2 200344Z 20008KT 08/M02 A2982 RMK A01 T00811015  RH  051%=      5-min Rain = 0
KHA2 200345Z 20008KT 08/M02 A2982 RMK A01 T00801015  RH  051%=      5-min Rain = 0
KHA2 200346Z 20008KT 08/M02 A2982 RMK A01 T00801015  RH  051%=      5-min Rain = 0
KHA2 200347Z 20009KT 08/M02 A2982 RMK A01 T00801015  RH  051%=      5-min Rain = 0
KHA2 200348Z 20008KT 08/M02 A2982 RMK A01 T00801015  RH  051%=      5-min Rain = 0
KHA2 200349Z 20009KT 08/M02 A2982 RMK A01 T00811015  RH  051%=      5-min Rain = 0
KHA2 200350Z 20009KT 08/M01 A2982 RMK A01 T00821014  RH  051%=      5-min Rain = 0
KHA2 200351Z 20010KT 08/M01 A2982 RMK A01 T00841014  RH  050%=      5-min Rain = 0
KHA2 200352Z 20009KT 09/M01 A2982 RMK A01 T00861014  RH  050%=      5-min Rain = 0
KHA2 200353Z 20010KT 09/M01 A2982 RMK A01 T00881013  RH  049%=      5-min Rain = 0
KHA2 200354Z 20010KT 09/M01 A2982 RMK A01 T00891013  RH  049%=      5-min Rain = 0
KHA2 200355Z 20010KT 09/M01 A2982 RMK A01 T00911013  RH  048%=      5-min Rain = 0
KHA2 200356Z 20011KT 09/M01 A2982 RMK A01 T00921013  RH  048%=      5-min Rain = 0
KHA2 200357Z 20010KT 09/M01 A2982 RMK A01 T00931013  RH  047%=      5-min Rain = 0
KHA2 200358Z 20010KT 09/M01 A2982 RMK A01 T00931013  RH  047%=      5-min Rain = 0
KHA2 200359Z 20010KT 09/M01 A2982 RMK A01 T00941013  RH  047%=      5-min Rain = 0
KHA2 200400Z 20010KT 09/M01 A2982 RMK A01 T00941013  RH  047%=      5-min Rain = 0
KHA2 200401Z 20010KT 09/M01 A2982 RMK A01 T00941013  RH  047%=      5-min Rain = 0
KHA2 200402Z 20010KT 09/M01 A2982 RMK A01 T00931012  RH  048%=      5-min Rain = 0
KHA2 200403Z 20009KT 09/M01 A2982 RMK A01 T00921012  RH  048%=      5-min Rain = 0
KHA2 200404Z 20010KT 09/M01 A2982 RMK A01 T00921012  RH  048%=      5-min Rain = 0
KHA2 200405Z 20010KT 09/M01 A2982 RMK A01 T00911013  RH  048%=      5-min Rain = 0
KHA2 200406Z 21010KT 09/M01 A2982 RMK A01 T00901013  RH  049%=      5-min Rain = 0
KHA2 200407Z 21009KT 09/M01 A2982 RMK A01 T00881014  RH  049%=      5-min Rain = 0
KHA2 200408Z 21009KT 09/M01 A2982 RMK A01 T00861014  RH  049%=      5-min Rain = 0
KHA2 200409Z 21009KT 09/M01 A2982 RMK A01 T00851014  RH  050%=      5-min Rain = 0
KHA2 200410Z 21009KT 08/M01 A2982 RMK A01 T00841014  RH  050%=      5-min Rain = 0
KHA2 200411Z 21009KT 08/M01 A2982 RMK A01 T00831014  RH  050%=      5-min Rain = 0
KHA2 200412Z 21009KT 08/M01 A2982 RMK A01 T00831013  RH  051%=      5-min Rain = 0
KHA2 200413Z 21009KT 08/M01 A2982 RMK A01 T00841013  RH  050%=      5-min Rain = 0
KHA2 200414Z 21009KT 09/M01 A2982 RMK A01 T00851013  RH  050%=      5-min Rain = 0
KHA2 200415Z 21009KT 08/M01 A2982 RMK A01 T00831014  RH  050%=      5-min Rain = 0
KHA2 200416Z 21009KT 08/M01 A2982 RMK A01 T00831013  RH  051%=      5-min Rain = 0
KHA2 200417Z 21009KT 08/M01 A2982 RMK A01 T00831013  RH  051%=      5-min Rain = 0
KHA2 200418Z 21009KT 08/M01 A2982 RMK A01 T00831013  RH  051%=      5-min Rain = 0
KHA2 200419Z 21009KT 08/M01 A2982 RMK A01 T00831013  RH  051%=      5-min Rain = 0
KHA2 200420Z 21009KT 08/M01 A2982 RMK A01 T00831013  RH  051%=      5-min Rain = 0
KHA2 200421Z 21010KT 08/M01 A2982 RMK A01 T00831013  RH  051%=      5-min Rain = 0
KHA2 200422Z 21010KT 08/M01 A2982 RMK A01 T00831012  RH  051%=      5-min Rain = 0
KHA2 200423Z 21010KT 08/M01 A2982 RMK A01 T00831012  RH  051%=      5-min Rain = 0
KHA2 200424Z 21010KT 08/M01 A2982 RMK A01 T00831012  RH  051%=      5-min Rain = 0
KHA2 200425Z 21010KT 08/M01 A2982 RMK A01 T00841012  RH  051%=      5-min Rain = 0
KHA2 200426Z 21010KT 08/M01 A2982 RMK A01 T00841011  RH  051%=      5-min Rain = 0
KHA2 200427Z 21010KT 08/M01 A2981 RMK A01 T00841011  RH  051%=      5-min Rain = 0
KHA2 200428Z 21010KT 08/M01 A2981 RMK A01 T00841011  RH  051%=      5-min Rain = 0
KHA2 200429Z 21010KT 08/M01 A2981 RMK A01 T00841010  RH  051%=      5-min Rain = 0
KHA2 200430Z 21010KT 09/M01 A2981 RMK A01 T00851009  RH  051%=      5-min Rain = 0
KHA2 200431Z 21010KT 09/M01 A2981 RMK A01 T00861009  RH  051%=      5-min Rain = 0
KHA2 200432Z 21010KT 09/M01 A2982 RMK A01 T00871009  RH  051%=      5-min Rain = 0
KHA2 200433Z 21011KT 09/M01 A2982 RMK A01 T00881009  RH  051%=      5-min Rain = 0
KHA2 200434Z 21010KT 09/M01 A2982 RMK A01 T00891008  RH  051%=      5-min Rain = 0
KHA2 200435Z 21010KT 09/M01 A2982 RMK A01 T00901008  RH  050%=      5-min Rain = 0
KHA2 200436Z 21010KT 09/M01 A2982 RMK A01 T00911007  RH  050%=      5-min Rain = 0
KHA2 200437Z 21010KT 09/M01 A2982 RMK A01 T00921007  RH  050%=      5-min Rain = 0
KHA2 200438Z 21010KT 09/M01 A2982 RMK A01 T00921007  RH  050%=      5-min Rain = 0
KHA2 200439Z 21010KT 09/M01 A2982 RMK A01 T00921007  RH  050%=      5-min Rain = 0
KHA2 200440Z 21010KT 09/M01 A2982 RMK A01 T00921007  RH  050%=      5-min Rain = 0
KHA2 200441Z 21010KT 09/M01 A2982 RMK A01 T00931007  RH  050%=      5-min Rain = 0
KHA2 200442Z 21009KT 09/M01 A2982 RMK A01 T00931007  RH  050%=      5-min Rain = 0
KHA2 200443Z 21009KT 09/M01 A2982 RMK A01 T00931007  RH  050%=      5-min Rain = 0
KHA2 200444Z 21009KT 09/M01 A2982 RMK A01 T00921007  RH  050%=      5-min Rain = 0
KHA2 200445Z 21009KT 09/M01 A2982 RMK A01 T00921008  RH  050%=      5-min Rain = 0
KHA2 200446Z 21009KT 09/M01 A2982 RMK A01 T00921008  RH  050%=      5-min Rain = 0
KHA2 200447Z 21009KT 09/M01 A2982 RMK A01 T00911008  RH  050%=      5-min Rain = 0
KHA2 200448Z 21009KT 09/M01 A2982 RMK A01 T00911008  RH  050%=      5-min Rain = 0
KHA2 200449Z 21009KT 09/M01 A2982 RMK A01 T00911008  RH  050%=      5-min Rain = 0
KHA2 200450Z 21009KT 09/M01 A2982 RMK A01 T00911008  RH  050%=      5-min Rain = 0
KHA2 200451Z 21008KT 09/M01 A2982 RMK A01 T00911008  RH  050%=      5-min Rain = 0
KHA2 200452Z 21008KT 09/M01 A2982 RMK A01 T00901008  RH  050%=      5-min Rain = 0
KHA2 200453Z 21008KT 09/M01 A2982 RMK A01 T00901008  RH  050%=      5-min Rain = 0
KHA2 200454Z 21009KT 09/M01 A2982 RMK A01 T00911008  RH  050%=      5-min Rain = 0
KHA2 200455Z 21009KT 09/M01 A2982 RMK A01 T00911008  RH  050%=      5-min Rain = 0
KHA2 200456Z 21009KT 09/M01 A2982 RMK A01 T00921008  RH  049%=      5-min Rain = 0
KHA2 200457Z 21008KT 09/M01 A2982 RMK A01 T00921008  RH  049%=      5-min Rain = 0
KHA2 200458Z 21009KT 09/M01 A2982 RMK A01 T00921009  RH  049%=      5-min Rain = 0
KHA2 200459Z 21009KT 09/M01 A2982 RMK A01 T00911009  RH  049%=      5-min Rain = 0
KHA2 200500Z 21009KT 09/M01 A2982 RMK A01 T00901010  RH  050%=      5-min Rain = 0
KHA2 200501Z 21008KT 09/M01 A2982 RMK A01 T00891010  RH  050%=      5-min Rain = 0
KHA2 200502Z 21008KT 09/M01 A2982 RMK A01 T00891010  RH  050%=      5-min Rain = 0
KHA2 200503Z 21009KT 09/M01 A2982 RMK A01 T00881010  RH  050%=      5-min Rain = 0
KHA2 200504Z 21009KT 09/M01 A2982 RMK A01 T00881010  RH  050%=      5-min Rain = 0
KHA2 200505Z 21009KT 09/M01 A2982 RMK A01 T00881010  RH  050%=      5-min Rain = 0
KHA2 200506Z 21008KT 09/M01 A2982 RMK A01 T00861011  RH  050%=      5-min Rain = 0
KHA2 200507Z 22008KT 09/M01 A2982 RMK A01 T00861010  RH  051%=      5-min Rain = 0
KHA2 200508Z 22008KT 09/M01 A2982 RMK A01 T00851011  RH  051%=      5-min Rain = 0
KHA2 200509Z 22008KT 09/M01 A2982 RMK A01 T00851011  RH  051%=      5-min Rain = 0
KHA2 200510Z 22008KT 08/M01 A2982 RMK A01 T00841011  RH  051%=      5-min Rain = 0
KHA2 200511Z 22008KT 08/M01 A2982 RMK A01 T00841011  RH  051%=      5-min Rain = 0
KHA2 200512Z 22008KT 08/M01 A2981 RMK A01 T00841011  RH  051%=      5-min Rain = 0
KHA2 200513Z 22008KT 08/M01 A2981 RMK A01 T00841011  RH  051%=      5-min Rain = 0
KHA2 200514Z 22008KT 08/M01 A2981 RMK A01 T00841011  RH  051%=      5-min Rain = 0
KHA2 200515Z 22008KT 08/M01 A2981 RMK A01 T00841011  RH  051%=      5-min Rain = 0
KHA2 200516Z 22007KT 08/M01 A2981 RMK A01 T00841010  RH  052%=      5-min Rain = 0
KHA2 200517Z 22007KT 08/M01 A2981 RMK A01 T00831010  RH  052%=      5-min Rain = 0
KHA2 200518Z 22007KT 08/M01 A2981 RMK A01 T00831010  RH  052%=      5-min Rain = 0
KHA2 200519Z 22007KT 08/M01 A2981 RMK A01 T00821010  RH  052%=      5-min Rain = 0
KHA2 200520Z 22008KT 08/M01 A2981 RMK A01 T00811010  RH  052%=      5-min Rain = 0
KHA2 200521Z 22008KT 08/M01 A2981 RMK A01 T00811010  RH  053%=      5-min Rain = 0
KHA2 200522Z 22008KT 08/M01 A2981 RMK A01 T00811011  RH  053%=      5-min Rain = 0
KHA2 200523Z 22009KT 08/M01 A2981 RMK A01 T00811010  RH  053%=      5-min Rain = 0
KHA2 200524Z 21008KT 08/M01 A2981 RMK A01 T00821010  RH  052%=      5-min Rain = 0
KHA2 200525Z 21009KT 08/M01 A2981 RMK A01 T00821010  RH  052%=      5-min Rain = 0
KHA2 200526Z 21009KT 08/M01 A2981 RMK A01 T00821010  RH  052%=      5-min Rain = 0
KHA2 200527Z 21009KT 08/M01 A2981 RMK A01 T00831010  RH  052%=      5-min Rain = 0
KHA2 200528Z 21009KT 08/M01 A2981 RMK A01 T00831010  RH  052%=      5-min Rain = 0
KHA2 200529Z 21010KT 08/M01 A2981 RMK A01 T00841010  RH  052%=      5-min Rain = 0
KHA2 200530Z 21010KT 08/M01 A2981 RMK A01 T00841010  RH  052%=      5-min Rain = 0
KHA2 200531Z 21010KT 08/M01 A2981 RMK A01 T00841010  RH  052%=      5-min Rain = 0
KHA2 200532Z 20010KT 09/M01 A2982 RMK A01 T00851010  RH  051%=      5-min Rain = 0
KHA2 200533Z 21010KT 09/M01 A2982 RMK A01 T00851010  RH  051%=      5-min Rain = 0
KHA2 200534Z 20010KT 09/M01 A2982 RMK A01 T00851010  RH  051%=      5-min Rain = 0
KHA2 200535Z 20010KT 09/M01 A2982 RMK A01 T00851010  RH  051%=      5-min Rain = 0
KHA2 200536Z 21010KT 08/M01 A2981 RMK A01 T00841011  RH  051%=      5-min Rain = 0
KHA2 200537Z 20010KT 08/M01 A2982 RMK A01 T00841010  RH  051%=      5-min Rain = 0
KHA2 200538Z 21009KT 08/M01 A2981 RMK A01 T00841010  RH  052%=      5-min Rain = 0
KHA2 200539Z 21010KT 08/M01 A2981 RMK A01 T00841010  RH  052%=      5-min Rain = 0
KHA2 200540Z 21010KT 08/M01 A2981 RMK A01 T00831010  RH  052%=      5-min Rain = 0
KHA2 200541Z 21010KT 08/M01 A2981 RMK A01 T00831010  RH  052%=      5-min Rain = 0
KHA2 200542Z 21010KT 08/M01 A2981 RMK A01 T00831010  RH  052%=      5-min Rain = 0
KHA2 200543Z 20010KT 08/M01 A2981 RMK A01 T00831010  RH  052%=      5-min Rain = 0
KHA2 200544Z 21010KT 08/M01 A2981 RMK A01 T00821010  RH  052%=      5-min Rain = 0
KHA2 200545Z 21010KT 08/M01 A2981 RMK A01 T00821010  RH  052%=      5-min Rain = 0
KHA2 200546Z 20010KT 08/M01 A2981 RMK A01 T00821010  RH  052%=      5-min Rain = 0
KHA2 200547Z 21010KT 08/M01 A2981 RMK A01 T00831009  RH  052%=      5-min Rain = 0
KHA2 200548Z 21010KT 08/M01 A2981 RMK A01 T00831009  RH  052%=      5-min Rain = 0
KHA2 200549Z 21010KT 08/M01 A2981 RMK A01 T00831009  RH  052%=      5-min Rain = 0
KHA2 200550Z 21010KT 08/M01 A2981 RMK A01 T00841009  RH  052%=      5-min Rain = 0
KHA2 200551Z 21009KT 09/M01 A2981 RMK A01 T00861008  RH  052%=      5-min Rain = 0
KHA2 200552Z 21009KT 09/M01 A2981 RMK A01 T00861009  RH  051%=      5-min Rain = 0
KHA2 200553Z 21009KT 09/M01 A2981 RMK A01 T00861009  RH  051%=      5-min Rain = 0
KHA2 200554Z 21009KT 09/M01 A2981 RMK A01 T00871008  RH  051%=      5-min Rain = 0
KHA2 200555Z 21009KT 09/M01 A2981 RMK A01 T00881008  RH  051%=      5-min Rain = 0
KHA2 200556Z 21009KT 09/M01 A2981 RMK A01 T00881008  RH  051%=      5-min Rain = 0
KHA2 200557Z 21009KT 09/M01 A2981 RMK A01 T00881008  RH  051%=      5-min Rain = 0
KHA2 200558Z 21010KT 09/M01 A2981 RMK A01 T00881008  RH  051%=      5-min Rain = 0
KHA2 200559Z 21010KT 09/M01 A2981 RMK A01 T00881008  RH  051%=      5-min Rain = 0

Page generated in 0.08 seconds.